Wetterdaten: Samstag, 17.04.2021
Datum Zeit Temp. Aussen Temp. o. S. Temp +5cm Feuchte Auss Luftdruck Regen Sonnenschein Regendauer Solar Windben Empfang
17.04.2021 00:00 7,7 C 6,7 C 3,9 C 69 % 1026,4 hPa 0,0 l/m 0 min 0 min 0 W/m 6,4 km/h (2 Bft) 93,62 %
17.04.2021 00:02 7,6 C 6,7 C 3,9 C 69 % 1026,4 hPa 0,0 l/m 0 min 0 min 0 W/m 6,4 km/h (2 Bft) 97,56 %
17.04.2021 00:04 7,6 C 6,7 C 3,9 C 69 % 1026,4 hPa 0,0 l/m 0 min 0 min 0 W/m 12,9 km/h (3 Bft) 61,70 %
17.04.2021 00:08 7,6 C 6,7 C 4,5 C 69 % 1026,4 hPa 0,0 l/m 0 min 0 min 0 W/m 6,4 km/h (2 Bft) 87,23 %
17.04.2021 00:10 7,6 C 6,7 C 4,5 C 69 % 1026,5 hPa 0,0 l/m 0 min 0 min 0 W/m 6,4 km/h (2 Bft) 74,47 %
17.04.2021 00:12 7,6 C 6,7 C 4,5 C 69 % 1026,5 hPa 0,0 l/m 0 min 0 min 0 W/m 9,7 km/h (2 Bft) 85,11 %
17.04.2021 00:14 7,6 C 6,7 C 4,5 C 69 % 1026,6 hPa 0,0 l/m 0 min 0 min 0 W/m 9,7 km/h (2 Bft) 93,48 %
17.04.2021 00:16 7,6 C 6,7 C 4,5 C 69 % 1026,5 hPa 0,0 l/m 0 min 0 min 0 W/m 9,7 km/h (2 Bft) 78,72 %
17.04.2021 00:18 7,6 C 6,7 C 4,5 C 69 % 1026,5 hPa 0,0 l/m 0 min 0 min 0 W/m 12,9 km/h (3 Bft) 87,23 %
17.04.2021 00:20 7,6 C 6,7 C 4,5 C 69 % 1026,5 hPa 0,0 l/m 0 min 0 min 0 W/m 6,4 km/h (2 Bft) 95,74 %
17.04.2021 00:22 7,6 C 7,2 C 4,5 C 69 % 1026,5 hPa 0,0 l/m 0 min 0 min 0 W/m 9,7 km/h (2 Bft) 63,83 %
17.04.2021 00:24 7,6 C 6,7 C 4,5 C 69 % 1026,5 hPa 0,0 l/m 0 min 0 min 0 W/m 9,7 km/h (2 Bft) 67,74 %
17.04.2021 00:26 7,6 C 6,7 C 4,5 C 69 % 1026,5 hPa 0,0 l/m 0 min 0 min 0 W/m 9,7 km/h (2 Bft) 89,13 %
17.04.2021 00:28 7,6 C 7,2 C 4,5 C 69 % 1026,5 hPa 0,0 l/m 0 min 0 min 0 W/m 12,9 km/h (3 Bft) 91,49 %
17.04.2021 00:30 7,6 C 6,7 C 4,5 C 69 % 1026,5 hPa 0,0 l/m 0 min 0 min 0 W/m 9,7 km/h (2 Bft) 95,74 %
17.04.2021 00:32 7,6 C 6,7 C 4,5 C 69 % 1026,6 hPa 0,0 l/m 0 min 0 min 0 W/m 6,4 km/h (2 Bft) 97,87 %
17.04.2021 00:34 7,6 C 6,7 C 4,5 C 69 % 1026,5 hPa 0,0 l/m 0 min 0 min 0 W/m 12,9 km/h (3 Bft) 97,87 %
17.04.2021 00:36 7,5 C 6,7 C 4,5 C 69 % 1026,5 hPa 0,0 l/m 0 min 0 min 0 W/m 9,7 km/h (2 Bft) 95,74 %
17.04.2021 00:38 7,5 C 6,7 C 4,5 C 69 % 1026,5 hPa 0,0 l/m 0 min 0 min 0 W/m 6,4 km/h (2 Bft) 85,11 %
17.04.2021 00:40 7,5 C 6,7 C 3,9 C 69 % 1026,5 hPa 0,0 l/m 0 min 0 min 0 W/m 16,1 km/h (3 Bft) 93,62 %
17.04.2021 00:42 7,5 C 6,7 C 3,9 C 69 % 1026,5 hPa 0,0 l/m 0 min 0 min 0 W/m 6,4 km/h (2 Bft) 87,23 %
17.04.2021 00:44 7,5 C 6,7 C 3,9 C 69 % 1026,5 hPa 0,0 l/m 0 min 0 min 0 W/m 3,2 km/h (1 Bft) 95,74 %
17.04.2021 00:46 7,5 C 6,7 C 3,9 C 70 % 1026,5 hPa 0,0 l/m 0 min 0 min 0 W/m 6,4 km/h (2 Bft) 80,85 %
17.04.2021 00:48 7,5 C 6,7 C 3,9 C 70 % 1026,5 hPa 0,0 l/m 0 min 0 min 0 W/m 9,7 km/h (2 Bft) 82,98 %
17.04.2021 00:50 7,5 C 6,7 C 3,9 C 70 % 1026,5 hPa 0,0 l/m 0 min 0 min 0 W/m 3,2 km/h (1 Bft) 84,78 %
17.04.2021 00:52 7,4 C 6,7 C 3,9 C 70 % 1026,5 hPa 0,0 l/m 0 min 0 min 0 W/m 6,4 km/h (2 Bft) 89,36 %
17.04.2021 00:54 7,4 C 6,7 C 3,9 C 70 % 1026,5 hPa 0,0 l/m 0 min 0 min 0 W/m 12,9 km/h (3 Bft) 91,49 %
17.04.2021 00:56 7,4 C 6,7 C 3,9 C 70 % 1026,4 hPa 0,0 l/m 0 min 0 min 0 W/m 6,4 km/h (2 Bft) 89,36 %
17.04.2021 00:58 7,4 C 6,7 C 3,9 C 70 % 1026,5 hPa 0,0 l/m 0 min 0 min 0 W/m 3,2 km/h (1 Bft) 93,62 %
17.04.2021 01:00 7,4 C 6,7 C 3,9 C 70 % 1026,4 hPa 0,0 l/m 0 min 0 min 0 W/m 9,7 km/h (2 Bft) 87,23 %
17.04.2021 01:02 7,4 C 6,7 C 3,9 C 70 % 1026,4 hPa 0,0 l/m 0 min 0 min 0 W/m 3,2 km/h (1 Bft) 95,74 %
17.04.2021 01:04 7,3 C 6,7 C 3,9 C 70 % 1026,4 hPa 0,0 l/m 0 min 0 min 0 W/m 6,4 km/h (2 Bft) 100,00 %
17.04.2021 01:06 7,3 C 6,7 C 3,9 C 70 % 1026,4 hPa 0,0 l/m 0 min 0 min 0 W/m 12,9 km/h (3 Bft) 95,74 %
17.04.2021 01:08 7,3 C 6,7 C 3,9 C 70 % 1026,4 hPa 0,0 l/m 0 min 0 min 0 W/m 9,7 km/h (2 Bft) 97,92 %
17.04.2021 01:10 7,3 C 6,7 C 3,9 C 70 % 1026,4 hPa 0,0 l/m 0 min 0 min 0 W/m 16,1 km/h (3 Bft) 97,87 %
17.04.2021 01:12 7,3 C 6,7 C 3,9 C 71 % 1026,4 hPa 0,0 l/m 0 min 0 min 0 W/m 6,4 km/h (2 Bft) 95,65 %
17.04.2021 01:14 7,3 C 6,7 C 3,9 C 71 % 1026,5 hPa 0,0 l/m 0 min 0 min 0 W/m 3,2 km/h (1 Bft) 93,62 %
17.04.2021 01:16 7,3 C 6,1 C 3,9 C 71 % 1026,5 hPa 0,0 l/m 0 min 0 min 0 W/m 9,7 km/h (2 Bft) 76,60 %
17.04.2021 01:18 7,3 C 6,1 C 3,9 C 71 % 1026,5 hPa 0,0 l/m 0 min 0 min 0 W/m 16,1 km/h (3 Bft) 78,72 %
17.04.2021 01:20 7,2 C 6,1 C 3,9 C 71 % 1026,4 hPa 0,0 l/m 0 min 0 min 0 W/m 6,4 km/h (2 Bft) 76,60 %
17.04.2021 01:22 7,2 C 6,1 C 3,9 C 71 % 1026,5 hPa 0,0 l/m 0 min 0 min 0 W/m 3,2 km/h (1 Bft) 57,45 %
17.04.2021 01:24 7,1 C 6,1 C 3,9 C 71 % 1026,5 hPa 0,0 l/m 0 min 0 min 0 W/m 3,2 km/h (1 Bft) 76,09 %
17.04.2021 01:26 7,1 C 6,1 C 3,4 C 71 % 1026,5 hPa 0,0 l/m 0 min 0 min 0 W/m 9,7 km/h (2 Bft) 86,36 %
17.04.2021 01:28 7,0 C 6,1 C 3,4 C 71 % 1026,5 hPa 0,0 l/m 0 min 0 min 0 W/m 6,4 km/h (2 Bft) 78,72 %
17.04.2021 01:30 7,0 C 6,1 C 3,4 C 71 % 1026,5 hPa 0,0 l/m 0 min 0 min 0 W/m 6,4 km/h (2 Bft) 68,09 %
17.04.2021 01:32 7,0 C 6,1 C 3,4 C 71 % 1026,5 hPa 0,0 l/m 0 min 0 min 0 W/m 9,7 km/h (2 Bft) 34,04 %
17.04.2021 01:34 7,0 C 6,1 C 3,4 C 71 % 1026,5 hPa 0,0 l/m 0 min 0 min 0 W/m 9,7 km/h (2 Bft) 38,30 %
17.04.2021 01:36 7,0 C 6,1 C 3,4 C 71 % 1026,5 hPa 0,0 l/m 0 min 0 min 0 W/m 12,9 km/h (3 Bft) 42,55 %
17.04.2021 01:38 6,9 C 6,1 C 3,4 C 72 % 1026,5 hPa 0,0 l/m 0 min 0 min 0 W/m 9,7 km/h (2 Bft) 32,61 %
17.04.2021 01:40 6,9 C 6,1 C 3,4 C 72 % 1026,5 hPa 0,0 l/m 0 min 0 min 0 W/m 6,4 km/h (2 Bft) 31,71 %
17.04.2021 01:42 6,9 C 6,1 C 3,4 C 72 % 1026,5 hPa 0,0 l/m 0 min 0 min 0 W/m 6,4 km/h (2 Bft) 93,48 %
17.04.2021 01:44 6,9 C 6,1 C 3,4 C 72 % 1026,5 hPa 0,0 l/m 0 min 0 min 0 W/m 9,7 km/h (2 Bft) 93,62 %
17.04.2021 01:46 6,9 C 6,1 C 3,4 C 72 % 1026,5 hPa 0,0 l/m 0 min 0 min 0 W/m 12,9 km/h (3 Bft) 63,83 %
17.04.2021 01:48 6,8 C 6,1 C 3,4 C 72 % 1026,5 hPa 0,0 l/m 0 min 0 min 0 W/m 9,7 km/h (2 Bft) 56,52 %
17.04.2021 01:50 6,8 C 6,1 C 3,4 C 72 % 1026,5 hPa 0,0 l/m 0 min 0 min 0 W/m 9,7 km/h (2 Bft) 61,70 %
17.04.2021 01:52 6,8 C 6,1 C 3,4 C 72 % 1026,5 hPa 0,0 l/m 0 min 0 min 0 W/m 6,4 km/h (2 Bft) 76,60 %
17.04.2021 01:54 6,8 C 6,1 C 3,4 C 72 % 1026,4 hPa 0,0 l/m 0 min 0 min 0 W/m 12,9 km/h (3 Bft) 97,87 %
17.04.2021 01:56 6,8 C 6,1 C 3,4 C 72 % 1026,4 hPa 0,0 l/m 0 min 0 min 0 W/m 6,4 km/h (2 Bft) 76,60 %
17.04.2021 01:58 6,8 C 6,1 C 3,4 C 72 % 1026,4 hPa 0,0 l/m 0 min 0 min 0 W/m 6,4 km/h (2 Bft) 63,83 %
17.04.2021 02:00 6,8 C 6,1 C 3,4 C 72 % 1026,4 hPa 0,0 l/m 0 min 0 min 0 W/m 9,7 km/h (2 Bft) 71,74 %
17.04.2021 02:02 6,8 C 6,1 C 3,4 C 72 % 1026,4 hPa 0,0 l/m 0 min 0 min 0 W/m 16,1 km/h (3 Bft) 91,49 %
17.04.2021 02:04 6,8 C 6,1 C 3,4 C 72 % 1026,4 hPa 0,0 l/m 0 min 0 min 0 W/m 6,4 km/h (2 Bft) 89,36 %
17.04.2021 02:06 6,8 C 6,1 C 3,9 C 73 % 1026,5 hPa 0,0 l/m 0 min 0 min 0 W/m 9,7 km/h (2 Bft) 95,74 %
17.04.2021 02:08 6,8 C 6,1 C 3,9 C 73 % 1026,5 hPa 0,0 l/m 0 min 0 min 0 W/m 6,4 km/h (2 Bft) 95,83 %
17.04.2021 02:10 6,8 C 6,1 C 3,9 C 72 % 1026,4 hPa 0,0 l/m 0 min 0 min 0 W/m 6,4 km/h (2 Bft) 100,00 %
17.04.2021 02:12 6,8 C 6,1 C 3,9 C 72 % 1026,4 hPa 0,0 l/m 0 min 0 min 0 W/m 6,4 km/h (2 Bft) 97,83 %
17.04.2021 02:14 6,8 C 6,1 C 3,4 C 72 % 1026,4 hPa 0,0 l/m 0 min 0 min 0 W/m 16,1 km/h (3 Bft) 91,49 %
17.04.2021 02:16 6,8 C 6,1 C 3,4 C 72 % 1026,4 hPa 0,0 l/m 0 min 0 min 0 W/m 6,4 km/h (2 Bft) 97,87 %
17.04.2021 02:18 6,7 C 6,1 C 3,4 C 73 % 1026,4 hPa 0,0 l/m 0 min 0 min 0 W/m 6,4 km/h (2 Bft) 87,23 %
17.04.2021 02:20 6,7 C 6,1 C 3,4 C 73 % 1026,4 hPa 0,0 l/m 0 min 0 min 0 W/m 3,2 km/h (1 Bft) 80,85 %
17.04.2021 02:22 6,7 C 6,1 C 3,4 C 73 % 1026,4 hPa 0,0 l/m 0 min 0 min 0 W/m 9,7 km/h (2 Bft) 72,34 %
17.04.2021 02:24 6,6 C 6,1 C 3,4 C 73 % 1026,4 hPa 0,0 l/m 0 min 0 min 0 W/m 3,2 km/h (1 Bft) 73,91 %
17.04.2021 02:26 6,6 C 5,6 C 3,4 C 73 % 1026,3 hPa 0,0 l/m 0 min 0 min 0 W/m 6,4 km/h (2 Bft) 76,60 %
17.04.2021 02:28 6,6 C 5,6 C 3,4 C 73 % 1026,3 hPa 0,0 l/m 0 min 0 min 0 W/m 6,4 km/h (2 Bft) 87,23 %
17.04.2021 02:30 6,6 C 5,6 C 3,4 C 73 % 1026,4 hPa 0,0 l/m 0 min 0 min 0 W/m 16,1 km/h (3 Bft) 93,62 %
17.04.2021 02:32 6,5 C 5,6 C 3,4 C 73 % 1026,4 hPa 0,0 l/m 0 min 0 min 0 W/m 6,4 km/h (2 Bft) 97,87 %
17.04.2021 02:34 6,5 C 5,6 C 3,4 C 73 % 1026,3 hPa 0,0 l/m 0 min 0 min 0 W/m 6,4 km/h (2 Bft) 87,23 %
17.04.2021 02:36 6,5 C 5,6 C 3,4 C 73 % 1026,3 hPa 0,0 l/m 0 min 0 min 0 W/m 3,2 km/h (1 Bft) 80,43 %
17.04.2021 02:38 6,5 C 5,6 C 3,4 C 73 % 1026,3 hPa 0,0 l/m 0 min 0 min 0 W/m 6,4 km/h (2 Bft) 85,42 %
17.04.2021 02:40 6,4 C 5,6 C 2,8 C 73 % 1026,3 hPa 0,0 l/m 0 min 0 min 0 W/m 6,4 km/h (2 Bft) 55,32 %
17.04.2021 02:42 6,4 C 5,6 C 2,8 C 73 % 1026,3 hPa 0,0 l/m 0 min 0 min 0 W/m 6,4 km/h (2 Bft) 78,72 %
17.04.2021 02:44 6,4 C 5,6 C 2,8 C 73 % 1026,3 hPa 0,0 l/m 0 min 0 min 0 W/m 12,9 km/h (3 Bft) 80,85 %
17.04.2021 02:46 6,4 C 5,6 C 2,8 C 74 % 1026,4 hPa 0,0 l/m 0 min 0 min 0 W/m 9,7 km/h (2 Bft) 95,65 %
17.04.2021 02:48 6,4 C 5,6 C 2,8 C 74 % 1026,3 hPa 0,0 l/m 0 min 0 min 0 W/m 9,7 km/h (2 Bft) 87,23 %
17.04.2021 02:50 6,3 C 5,6 C 2,8 C 74 % 1026,3 hPa 0,0 l/m 0 min 0 min 0 W/m 6,4 km/h (2 Bft) 87,23 %
17.04.2021 02:52 6,3 C 5,6 C 2,8 C 74 % 1026,3 hPa 0,0 l/m 0 min 0 min 0 W/m 3,2 km/h (1 Bft) 82,98 %
17.04.2021 02:54 6,3 C 5,6 C 2,8 C 74 % 1026,4 hPa 0,0 l/m 0 min 0 min 0 W/m 3,2 km/h (1 Bft) 80,85 %
17.04.2021 02:56 6,3 C 5,6 C 2,8 C 74 % 1026,3 hPa 0,0 l/m 0 min 0 min 0 W/m 9,7 km/h (2 Bft) 76,60 %
17.04.2021 02:58 6,3 C 5,6 C 2,8 C 74 % 1026,3 hPa 0,0 l/m 0 min 0 min 0 W/m 3,2 km/h (1 Bft) 73,91 %
17.04.2021 03:00 6,2 C 5,6 C 2,8 C 74 % 1026,3 hPa 0,0 l/m 0 min 0 min 0 W/m 9,7 km/h (2 Bft) 91,49 %
17.04.2021 03:02 6,2 C 5,0 C 2,8 C 74 % 1026,3 hPa 0,0 l/m 0 min 0 min 0 W/m 6,4 km/h (2 Bft) 82,98 %
17.04.2021 03:04 6,1 C 5,0 C 2,8 C 74 % 1026,3 hPa 0,0 l/m 0 min 0 min 0 W/m 6,4 km/h (2 Bft) 95,74 %
17.04.2021 03:06 6,1 C 5,0 C 2,8 C 74 % 1026,3 hPa 0,0 l/m 0 min 0 min 0 W/m 3,2 km/h (1 Bft) 87,23 %
17.04.2021 03:08 6,1 C 5,0 C 2,8 C 74 % 1026,3 hPa 0,0 l/m 0 min 0 min 0 W/m 6,4 km/h (2 Bft) 60,42 %
17.04.2021 03:10 6,1 C 5,0 C 2,8 C 75 % 1026,2 hPa 0,0 l/m 0 min 0 min 0 W/m 9,7 km/h (2 Bft) 78,26 %
17.04.2021 03:12 6,0 C 5,0 C 2,8 C 75 % 1026,3 hPa 0,0 l/m 0 min 0 min 0 W/m 6,4 km/h (2 Bft) 82,98 %
17.04.2021 03:14 6,0 C 5,0 C 2,8 C 74 % 1026,3 hPa 0,0 l/m 0 min 0 min 0 W/m 9,7 km/h (2 Bft) 93,62 %
17.04.2021 03:16 6,0 C 5,0 C 2,3 C 75 % 1026,2 hPa 0,0 l/m 0 min 0 min 0 W/m 6,4 km/h (2 Bft) 97,87 %
17.04.2021 03:18 5,9 C 5,0 C 2,3 C 75 % 1026,2 hPa 0,0 l/m 0 min 0 min 0 W/m 3,2 km/h (1 Bft) 95,74 %
17.04.2021 03:20 5,9 C 5,0 C 2,3 C 75 % 1026,3 hPa 0,0 l/m 0 min 0 min 0 W/m 3,2 km/h (1 Bft) 97,87 %
17.04.2021 03:22 5,9 C 4,4 C 2,3 C 75 % 1026,2 hPa 0,0 l/m 0 min 0 min 0 W/m 6,4 km/h (2 Bft) 56,52 %
17.04.2021 03:24 5,9 C 4,4 C 2,3 C 75 % 1026,3 hPa 0,0 l/m 0 min 0 min 0 W/m 9,7 km/h (2 Bft) 95,74 %
17.04.2021 03:26 5,8 C 4,4 C 2,3 C 75 % 1026,3 hPa 0,0 l/m 0 min 0 min 0 W/m 3,2 km/h (1 Bft) 91,49 %
17.04.2021 03:28 5,8 C 4,4 C 2,3 C 75 % 1026,3 hPa 0,0 l/m 0 min 0 min 0 W/m 6,4 km/h (2 Bft) 97,67 %
17.04.2021 03:30 5,7 C 4,4 C 2,3 C 75 % 1026,2 hPa 0,0 l/m 0 min 0 min 0 W/m 6,4 km/h (2 Bft) 97,87 %
17.04.2021 03:32 5,6 C 4,4 C 2,3 C 75 % 1026,3 hPa 0,0 l/m 0 min 0 min 0 W/m 6,4 km/h (2 Bft) 95,83 %
17.04.2021 03:34 5,6 C 4,4 C 2,3 C 75 % 1026,3 hPa 0,0 l/m 0 min 0 min 0 W/m 6,4 km/h (2 Bft) 89,13 %
17.04.2021 03:36 5,6 C 4,4 C 2,3 C 76 % 1026,2 hPa 0,0 l/m 0 min 0 min 0 W/m 6,4 km/h (2 Bft) 74,47 %
17.04.2021 03:38 5,6 C 4,4 C 2,3 C 76 % 1026,2 hPa 0,0 l/m 0 min 0 min 0 W/m 3,2 km/h (1 Bft) 85,11 %
17.04.2021 03:40 5,5 C 4,4 C 2,3 C 76 % 1026,3 hPa 0,0 l/m 0 min 0 min 0 W/m 6,4 km/h (2 Bft) 95,74 %
17.04.2021 03:42 5,5 C 4,4 C 2,3 C 76 % 1026,2 hPa 0,0 l/m 0 min 0 min 0 W/m 3,2 km/h (1 Bft) 70,83 %
17.04.2021 03:44 5,5 C 4,4 C 2,3 C 76 % 1026,2 hPa 0,0 l/m 0 min 0 min 0 W/m 6,4 km/h (2 Bft) 74,47 %
17.04.2021 03:46 5,5 C 4,4 C 1,7 C 76 % 1026,2 hPa 0,0 l/m 0 min 0 min 0 W/m 6,4 km/h (2 Bft) 78,26 %
17.04.2021 03:48 5,4 C 4,4 C 1,7 C 76 % 1026,3 hPa 0,0 l/m 0 min 0 min 0 W/m 3,2 km/h (1 Bft) 95,74 %
17.04.2021 03:50 5,4 C 4,4 C 1,7 C 76 % 1026,3 hPa 0,0 l/m 0 min 0 min 0 W/m 3,2 km/h (1 Bft) 93,62 %
17.04.2021 03:52 5,4 C 3,9 C 1,7 C 76 % 1026,2 hPa 0,0 l/m 0 min 0 min 0 W/m 3,2 km/h (1 Bft) 65,96 %
17.04.2021 03:54 5,4 C 3,9 C 1,7 C 76 % 1026,2 hPa 0,0 l/m 0 min 0 min 0 W/m 3,2 km/h (1 Bft) 80,85 %
17.04.2021 03:56 5,3 C 3,9 C 1,7 C 76 % 1026,2 hPa 0,0 l/m 0 min 0 min 0 W/m 3,2 km/h (1 Bft) 59,57 %
17.04.2021 03:58 5,3 C 3,9 C 1,7 C 76 % 1026,3 hPa 0,0 l/m 0 min 0 min 0 W/m 0,0 km/h (0 Bft) 30,43 %
17.04.2021 04:00 5,3 C 3,9 C 1,7 C 77 % 1026,3 hPa 0,0 l/m 0 min 0 min 0 W/m 3,2 km/h (1 Bft) 45,45 %
17.04.2021 04:02 5,2 C 3,9 C 1,7 C 77 % 1026,2 hPa 0,0 l/m 0 min 0 min 0 W/m 3,2 km/h (1 Bft) 51,72 %
17.04.2021 04:04 5,2 C 3,9 C 1,7 C 77 % 1026,2 hPa 0,0 l/m 0 min 0 min 0 W/m 0,0 km/h (0 Bft) 29,79 %
17.04.2021 04:06 5,1 C 3,9 C 1,7 C 77 % 1026,2 hPa 0,0 l/m 0 min 0 min 0 W/m 0,0 km/h (0 Bft) 42,55 %
17.04.2021 04:08 5,1 C 3,9 C 1,7 C 77 % 1026,2 hPa 0,0 l/m 0 min 0 min 0 W/m 0,0 km/h (0 Bft) 65,22 %
17.04.2021 04:10 5,1 C 3,9 C 1,7 C 77 % 1026,2 hPa 0,0 l/m 0 min 0 min 0 W/m 0,0 km/h (0 Bft) 80,85 %
17.04.2021 04:12 5,1 C 3,9 C 1,7 C 77 % 1026,2 hPa 0,0 l/m 0 min 0 min 0 W/m 0,0 km/h (0 Bft) 91,49 %
17.04.2021 04:14 5,0 C 3,3 C 1,1 C 77 % 1026,2 hPa 0,0 l/m 0 min 0 min 0 W/m 6,4 km/h (2 Bft) 95,74 %
17.04.2021 04:16 5,0 C 3,3 C 1,1 C 77 % 1026,2 hPa 0,0 l/m 0 min 0 min 0 W/m 3,2 km/h (1 Bft) 95,74 %
17.04.2021 04:18 5,0 C 3,3 C 1,1 C 77 % 1026,1 hPa 0,0 l/m 0 min 0 min 0 W/m 3,2 km/h (1 Bft) 97,87 %
17.04.2021 04:20 5,0 C 3,3 C 1,1 C 77 % 1026,2 hPa 0,0 l/m 0 min 0 min 0 W/m 0,0 km/h (0 Bft) 97,83 %
17.04.2021 04:22 4,9 C 3,3 C 1,1 C 77 % 1026,2 hPa 0,0 l/m 0 min 0 min 0 W/m 3,2 km/h (1 Bft) 95,74 %
17.04.2021 04:24 4,9 C 3,3 C 1,1 C 77 % 1026,1 hPa 0,0 l/m 0 min 0 min 0 W/m 3,2 km/h (1 Bft) 80,85 %
17.04.2021 04:26 4,9 C 3,3 C 1,1 C 77 % 1026,2 hPa 0,0 l/m 0 min 0 min 0 W/m 3,2 km/h (1 Bft) 42,55 %
17.04.2021 04:28 4,9 C 3,3 C 1,1 C 78 % 1026,2 hPa 0,0 l/m 0 min 0 min 0 W/m 6,4 km/h (2 Bft) 31,91 %
17.04.2021 04:30 4,8 C 3,3 C 1,1 C 78 % 1026,2 hPa 0,0 l/m 0 min 0 min 0 W/m 3,2 km/h (1 Bft) 34,04 %
17.04.2021 04:32 4,8 C 3,3 C 1,1 C 78 % 1026,2 hPa 0,0 l/m 0 min 0 min 0 W/m 0,0 km/h (0 Bft) 39,13 %
17.04.2021 04:34 4,7 C 3,3 C 1,1 C 78 % 1026,2 hPa 0,0 l/m 0 min 0 min 0 W/m 0,0 km/h (0 Bft) 38,30 %
17.04.2021 04:36 4,7 C 3,3 C 1,1 C 78 % 1026,2 hPa 0,0 l/m 0 min 0 min 0 W/m 3,2 km/h (1 Bft) 48,94 %
17.04.2021 04:38 4,6 C 3,3 C 1,1 C 78 % 1026,1 hPa 0,0 l/m 0 min 0 min 0 W/m 3,2 km/h (1 Bft) 80,85 %
17.04.2021 04:40 4,6 C 3,3 C 1,1 C 78 % 1026,1 hPa 0,0 l/m 0 min 0 min 0 W/m 3,2 km/h (1 Bft) 91,49 %
17.04.2021 04:42 4,6 C 3,3 C 1,1 C 78 % 1026,1 hPa 0,0 l/m 0 min 0 min 0 W/m 3,2 km/h (1 Bft) 85,11 %
17.04.2021 04:44 4,5 C 3,3 C 1,1 C 79 % 1026,1 hPa 0,0 l/m 0 min 0 min 0 W/m 0,0 km/h (0 Bft) 91,30 %
17.04.2021 04:46 4,5 C 3,3 C 1,1 C 79 % 1026,1 hPa 0,0 l/m 0 min 0 min 0 W/m 0,0 km/h (0 Bft) 91,49 %
17.04.2021 04:48 4,5 C 3,3 C 1,1 C 79 % 1026,1 hPa 0,0 l/m 0 min 0 min 0 W/m 0,0 km/h (0 Bft) 93,62 %
17.04.2021 04:50 4,5 C 3,3 C 1,1 C 79 % 1026,1 hPa 0,0 l/m 0 min 0 min 0 W/m 3,2 km/h (1 Bft) 91,49 %
17.04.2021 04:52 4,4 C 2,8 C 0,6 C 79 % 1026,1 hPa 0,0 l/m 0 min 0 min 0 W/m 0,0 km/h (0 Bft) 93,62 %
17.04.2021 04:54 4,4 C 2,8 C 0,6 C 79 % 1026,1 hPa 0,0 l/m 0 min 0 min 0 W/m 3,2 km/h (1 Bft) 93,62 %
17.04.2021 04:56 4,4 C 2,8 C 0,6 C 79 % 1026,1 hPa 0,0 l/m 0 min 0 min 0 W/m 0,0 km/h (0 Bft) 91,30 %
17.04.2021 04:58 4,4 C 2,8 C 0,6 C 79 % 1026,1 hPa 0,0 l/m 0 min 0 min 0 W/m 3,2 km/h (1 Bft) 53,19 %
17.04.2021 05:00 4,3 C 2,8 C 0,6 C 79 % 1026,1 hPa 0,0 l/m 0 min 0 min 0 W/m 0,0 km/h (0 Bft) 55,32 %
17.04.2021 05:02 4,3 C 2,8 C 0,6 C 79 % 1026,1 hPa 0,0 l/m 0 min 0 min 0 W/m 3,2 km/h (1 Bft) 58,33 %
17.04.2021 05:04 4,3 C 2,8 C 0,6 C 79 % 1026,1 hPa 0,0 l/m 0 min 0 min 0 W/m 0,0 km/h (0 Bft) 87,23 %
17.04.2021 05:06 4,2 C 2,8 C 0,6 C 79 % 1026,1 hPa 0,0 l/m 0 min 0 min 0 W/m 3,2 km/h (1 Bft) 70,21 %
17.04.2021 05:08 4,1 C 2,8 C 0,6 C 79 % 1026,1 hPa 0,0 l/m 0 min 0 min 0 W/m 0,0 km/h (0 Bft) 65,22 %
17.04.2021 05:10 4,1 C 2,8 C 0,6 C 79 % 1026,1 hPa 0,0 l/m 0 min 0 min 0 W/m 3,2 km/h (1 Bft) 82,98 %
17.04.2021 05:12 4,1 C 2,8 C 0,6 C 79 % 1026,1 hPa 0,0 l/m 0 min 0 min 0 W/m 6,4 km/h (2 Bft) 80,85 %
17.04.2021 05:14 4,0 C 2,8 C 0,6 C 79 % 1026,1 hPa 0,0 l/m 0 min 0 min 0 W/m 3,2 km/h (1 Bft) 95,74 %
17.04.2021 05:16 4,0 C 2,8 C 0,6 C 79 % 1026,1 hPa 0,0 l/m 0 min 0 min 0 W/m 3,2 km/h (1 Bft) 95,74 %
17.04.2021 05:18 4,0 C 2,8 C 0,6 C 79 % 1026,1 hPa 0,0 l/m 0 min 0 min 0 W/m 3,2 km/h (1 Bft) 95,74 %
17.04.2021 05:20 3,9 C 2,8 C 0,6 C 80 % 1026,1 hPa 0,0 l/m 0 min 0 min 0 W/m 3,2 km/h (1 Bft) 97,83 %
17.04.2021 05:22 3,9 C 2,8 C 0,6 C 80 % 1026,1 hPa 0,0 l/m 0 min 0 min 0 W/m 3,2 km/h (1 Bft) 97,87 %
17.04.2021 05:24 3,9 C 2,8 C 0,6 C 80 % 1026,1 hPa 0,0 l/m 0 min 0 min 0 W/m 0,0 km/h (0 Bft) 97,87 %
17.04.2021 05:26 3,8 C 2,2 C 0,6 C 80 % 1026,1 hPa 0,0 l/m 0 min 0 min 0 W/m 0,0 km/h (0 Bft) 95,74 %
17.04.2021 05:28 3,8 C 2,2 C 0,6 C 80 % 1026,1 hPa 0,0 l/m 0 min 0 min 0 W/m 0,0 km/h (0 Bft) 97,22 %
17.04.2021 05:30 3,8 C 2,2 C 0,0 C 80 % 1026,2 hPa 0,0 l/m 0 min 0 min 0 W/m 0,0 km/h (0 Bft) 96,49 %
17.04.2021 05:32 3,8 C 2,2 C 0,0 C 80 % 1026,1 hPa 0,0 l/m 0 min 0 min 0 W/m 0,0 km/h (0 Bft) 95,74 %
17.04.2021 05:34 3,7 C 2,2 C 0,0 C 80 % 1026,2 hPa 0,0 l/m 0 min 0 min 0 W/m 3,2 km/h (1 Bft) 95,74 %
17.04.2021 05:36 3,6 C 2,2 C 0,0 C 80 % 1026,2 hPa 0,0 l/m 0 min 0 min 0 W/m 3,2 km/h (1 Bft) 91,67 %
17.04.2021 05:38 3,6 C 2,2 C 0,0 C 80 % 1026,2 hPa 0,0 l/m 0 min 0 min 0 W/m 3,2 km/h (1 Bft) 95,65 %
17.04.2021 05:40 3,6 C 2,2 C 0,0 C 80 % 1026,2 hPa 0,0 l/m 0 min 0 min 0 W/m 0,0 km/h (0 Bft) 95,74 %
17.04.2021 05:42 3,5 C 2,2 C 0,0 C 81 % 1026,2 hPa 0,0 l/m 0 min 0 min 0 W/m 3,2 km/h (1 Bft) 97,87 %
17.04.2021 05:44 3,5 C 2,2 C 0,0 C 81 % 1026,2 hPa 0,0 l/m 0 min 0 min 0 W/m 3,2 km/h (1 Bft) 93,48 %
17.04.2021 05:46 3,5 C 2,2 C 0,0 C 81 % 1026,1 hPa 0,0 l/m 0 min 0 min 0 W/m 0,0 km/h (0 Bft) 97,87 %
17.04.2021 05:48 3,4 C 2,2 C 0,0 C 81 % 1026,2 hPa 0,0 l/m 0 min 0 min 0 W/m 6,4 km/h (2 Bft) 97,87 %
17.04.2021 05:50 3,4 C 2,2 C 0,0 C 81 % 1026,2 hPa 0,0 l/m 0 min 0 min 0 W/m 3,2 km/h (1 Bft) 93,62 %
17.04.2021 05:52 3,4 C 2,2 C 0,0 C 81 % 1026,2 hPa 0,0 l/m 0 min 0 min 0 W/m 6,4 km/h (2 Bft) 89,36 %
17.04.2021 05:54 3,4 C 2,2 C 0,0 C 81 % 1026,2 hPa 0,0 l/m 0 min 0 min 0 W/m 3,2 km/h (1 Bft) 74,47 %
17.04.2021 05:56 3,3 C 2,2 C 0,0 C 81 % 1026,2 hPa 0,0 l/m 0 min 0 min 0 W/m 6,4 km/h (2 Bft) 93,48 %
17.04.2021 05:58 3,3 C 2,2 C 0,0 C 82 % 1026,2 hPa 0,0 l/m 0 min 0 min 0 W/m 3,2 km/h (1 Bft) 100,00 %
17.04.2021 06:00 3,3 C 2,2 C 0,0 C 82 % 1026,3 hPa 0,0 l/m 0 min 0 min 0 W/m 6,4 km/h (2 Bft) 94,29 %
17.04.2021 06:02 3,3 C 2,2 C 0,0 C 82 % 1026,3 hPa 0,0 l/m 0 min 0 min 0 W/m 9,7 km/h (2 Bft) 91,84 %
17.04.2021 06:04 3,3 C 2,2 C 0,0 C 82 % 1026,3 hPa 0,0 l/m 0 min 0 min 0 W/m 3,2 km/h (1 Bft) 93,62 %
17.04.2021 06:08 3,2 C 2,2 C 0,0 C 82 % 1026,3 hPa 0,0 l/m 0 min 0 min 0 W/m 3,2 km/h (1 Bft) 95,70 %
17.04.2021 06:10 3,2 C 2,2 C 0,0 C 82 % 1026,3 hPa 0,0 l/m 0 min 0 min 0 W/m 0,0 km/h (0 Bft) 100,00 %
17.04.2021 06:12 3,1 C 2,2 C 0,0 C 83 % 1026,3 hPa 0,0 l/m 0 min 0 min 0 W/m 3,2 km/h (1 Bft) 100,00 %
17.04.2021 06:14 3,1 C 2,2 C 0,0 C 83 % 1026,4 hPa 0,0 l/m 0 min 0 min 0 W/m 0,0 km/h (0 Bft) 93,62 %
17.04.2021 06:16 3,1 C 2,2 C 0,0 C 83 % 1026,4 hPa 0,0 l/m 0 min 0 min 0 W/m 3,2 km/h (1 Bft) 95,74 %
17.04.2021 06:18 3,1 C 2,2 C 0,0 C 83 % 1026,4 hPa 0,0 l/m 0 min 0 min 0 W/m 3,2 km/h (1 Bft) 95,74 %
17.04.2021 06:20 3,1 C 2,2 C 0,0 C 83 % 1026,4 hPa 0,0 l/m 0 min 0 min 0 W/m 3,2 km/h (1 Bft) 95,65 %
17.04.2021 06:22 3,1 C 2,2 C 0,0 C 83 % 1026,4 hPa 0,0 l/m 0 min 0 min 0 W/m 3,2 km/h (1 Bft) 89,36 %
17.04.2021 06:24 3,0 C 1,7 C 0,0 C 83 % 1026,5 hPa 0,0 l/m 0 min 0 min 0 W/m 3,2 km/h (1 Bft) 85,11 %
17.04.2021 06:26 3,0 C 1,7 C 0,0 C 83 % 1026,4 hPa 0,0 l/m 0 min 0 min 0 W/m 3,2 km/h (1 Bft) 78,72 %
17.04.2021 06:28 3,0 C 1,7 C 0,0 C 83 % 1026,4 hPa 0,0 l/m 0 min 0 min 0 W/m 0,0 km/h (0 Bft) 87,23 %
17.04.2021 06:30 3,0 C 1,7 C 0,0 C 83 % 1026,4 hPa 0,0 l/m 0 min 0 min 0 W/m 3,2 km/h (1 Bft) 95,74 %
17.04.2021 06:32 3,0 C 2,2 C 0,0 C 83 % 1026,4 hPa 0,0 l/m 0 min 0 min 0 W/m 6,4 km/h (2 Bft) 76,09 %
17.04.2021 06:34 3,0 C 2,2 C 0,0 C 83 % 1026,5 hPa 0,0 l/m 0 min 0 min 0 W/m 0,0 km/h (0 Bft) 87,23 %
17.04.2021 06:36 2,9 C 1,7 C 0,0 C 83 % 1026,5 hPa 0,0 l/m 0 min 0 min 0 W/m 3,2 km/h (1 Bft) 74,47 %
17.04.2021 06:38 2,9 C 1,7 C 0,0 C 84 % 1026,5 hPa 0,0 l/m 0 min 0 min 1 W/m 0,0 km/h (0 Bft) 72,34 %
17.04.2021 06:40 2,9 C 1,7 C 0,0 C 84 % 1026,5 hPa 0,0 l/m 0 min 0 min 5 W/m 6,4 km/h (2 Bft) 80,85 %
17.04.2021 06:42 2,9 C 2,2 C 0,0 C 84 % 1026,5 hPa 0,0 l/m 0 min 0 min 5 W/m 3,2 km/h (1 Bft) 93,62 %
17.04.2021 06:44 2,9 C 2,2 C 0,0 C 84 % 1026,5 hPa 0,0 l/m 0 min 0 min 7 W/m 3,2 km/h (1 Bft) 97,83 %
17.04.2021 06:46 2,9 C 2,2 C 0,0 C 84 % 1026,5 hPa 0,0 l/m 0 min 0 min 8 W/m 3,2 km/h (1 Bft) 97,87 %
17.04.2021 06:48 2,9 C 2,2 C 0,0 C 84 % 1026,5 hPa 0,0 l/m 0 min 0 min 9 W/m 3,2 km/h (1 Bft) 97,87 %
17.04.2021 06:50 2,9 C 2,2 C 0,0 C 84 % 1026,6 hPa 0,0 l/m 0 min 0 min 9 W/m 6,4 km/h (2 Bft) 100,00 %
17.04.2021 06:52 2,9 C 2,2 C 0,0 C 84 % 1026,5 hPa 0,0 l/m 0 min 0 min 11 W/m 9,7 km/h (2 Bft) 97,87 %
17.04.2021 06:54 2,9 C 2,2 C 0,0 C 84 % 1026,5 hPa 0,0 l/m 0 min 0 min 11 W/m 3,2 km/h (1 Bft) 95,74 %
17.04.2021 06:56 2,9 C 2,2 C 0,0 C 84 % 1026,5 hPa 0,0 l/m 0 min 0 min 12 W/m 3,2 km/h (1 Bft) 97,83 %
17.04.2021 06:58 2,9 C 2,2 C 0,0 C 84 % 1026,5 hPa 0,0 l/m 0 min 0 min 13 W/m 3,2 km/h (1 Bft) 100,00 %
17.04.2021 07:00 2,9 C 2,2 C 0,0 C 84 % 1026,5 hPa 0,0 l/m 0 min 0 min 14 W/m 6,4 km/h (2 Bft) 100,00 %
17.04.2021 07:02 2,8 C 2,2 C 0,0 C 84 % 1026,5 hPa 0,0 l/m 0 min 0 min 15 W/m 3,2 km/h (1 Bft) 100,00 %
17.04.2021 07:04 2,8 C 2,2 C 0,0 C 85 % 1026,5 hPa 0,0 l/m 0 min 0 min 16 W/m 6,4 km/h (2 Bft) 97,87 %
17.04.2021 07:06 2,9 C 2,2 C 0,0 C 85 % 1026,5 hPa 0,0 l/m 0 min 0 min 16 W/m 3,2 km/h (1 Bft) 100,00 %
17.04.2021 07:08 2,9 C 2,2 C 0,0 C 85 % 1026,5 hPa 0,0 l/m 0 min 0 min 18 W/m 3,2 km/h (1 Bft) 100,00 %
17.04.2021 07:10 2,9 C 2,2 C 0,0 C 85 % 1026,5 hPa 0,0 l/m 0 min 0 min 18 W/m 6,4 km/h (2 Bft) 95,74 %
17.04.2021 07:12 2,9 C 2,2 C 0,0 C 85 % 1026,5 hPa 0,0 l/m 0 min 0 min 18 W/m 3,2 km/h (1 Bft) 97,87 %
17.04.2021 07:14 2,9 C 2,2 C 0,0 C 85 % 1026,5 hPa 0,0 l/m 0 min 0 min 18 W/m 6,4 km/h (2 Bft) 95,74 %
17.04.2021 07:16 2,9 C 2,2 C 0,0 C 85 % 1026,6 hPa 0,0 l/m 0 min 0 min 18 W/m 3,2 km/h (1 Bft) 97,87 %
17.04.2021 07:18 2,9 C 2,2 C 0,0 C 85 % 1026,6 hPa 0,0 l/m 0 min 0 min 19 W/m 3,2 km/h (1 Bft) 100,00 %
17.04.2021 07:20 2,9 C 2,2 C 0,0 C 85 % 1026,6 hPa 0,0 l/m 0 min 0 min 20 W/m 6,4 km/h (2 Bft) 97,87 %
17.04.2021 07:22 2,9 C 2,2 C 0,0 C 85 % 1026,5 hPa 0,0 l/m 0 min 0 min 21 W/m 0,0 km/h (0 Bft) 87,23 %
17.04.2021 07:24 2,9 C 2,2 C 0,0 C 85 % 1026,6 hPa 0,0 l/m 0 min 0 min 22 W/m 3,2 km/h (1 Bft) 64,44 %
17.04.2021 07:26 2,9 C 2,8 C 0,0 C 85 % 1026,6 hPa 0,0 l/m 0 min 0 min 24 W/m 6,4 km/h (2 Bft) 100,00 %
17.04.2021 07:28 2,9 C 2,8 C 0,0 C 85 % 1026,6 hPa 0,0 l/m 0 min 0 min 26 W/m 3,2 km/h (1 Bft) 100,00 %
17.04.2021 07:30 2,9 C 2,8 C 0,0 C 85 % 1026,6 hPa 0,0 l/m 0 min 0 min 28 W/m 3,2 km/h (1 Bft) 100,00 %
17.04.2021 07:32 2,9 C 2,8 C 0,6 C 85 % 1026,6 hPa 0,0 l/m 0 min 0 min 29 W/m 0,0 km/h (0 Bft) 100,00 %
17.04.2021 07:34 2,9 C 2,8 C 0,6 C 85 % 1026,6 hPa 0,0 l/m 0 min 0 min 30 W/m 6,4 km/h (2 Bft) 100,00 %
17.04.2021 07:36 3,0 C 2,8 C 0,6 C 85 % 1026,6 hPa 0,0 l/m 0 min 0 min 32 W/m 6,4 km/h (2 Bft) 97,87 %
17.04.2021 07:38 3,0 C 2,8 C 0,6 C 85 % 1026,6 hPa 0,0 l/m 0 min 0 min 33 W/m 3,2 km/h (1 Bft) 93,62 %
17.04.2021 07:40 3,0 C 2,8 C 0,6 C 85 % 1026,6 hPa 0,0 l/m 0 min 0 min 33 W/m 6,4 km/h (2 Bft) 100,00 %
17.04.2021 07:42 3,0 C 2,8 C 0,6 C 85 % 1026,6 hPa 0,0 l/m 0 min 0 min 34 W/m 3,2 km/h (1 Bft) 100,00 %
17.04.2021 07:44 3,0 C 2,8 C 0,6 C 85 % 1026,6 hPa 0,0 l/m 0 min 0 min 35 W/m 6,4 km/h (2 Bft) 100,00 %
17.04.2021 07:46 3,0 C 2,8 C 0,6 C 85 % 1026,6 hPa 0,0 l/m 0 min 0 min 37 W/m 6,4 km/h (2 Bft) 100,00 %
17.04.2021 07:48 3,0 C 2,8 C 0,6 C 85 % 1026,6 hPa 0,0 l/m 0 min 0 min 38 W/m 3,2 km/h (1 Bft) 100,00 %
17.04.2021 07:50 3,0 C 2,8 C 0,6 C 85 % 1026,6 hPa 0,0 l/m 0 min 0 min 39 W/m 3,2 km/h (1 Bft) 97,87 %
17.04.2021 07:52 3,0 C 2,8 C 0,6 C 85 % 1026,6 hPa 0,0 l/m 0 min 0 min 40 W/m 0,0 km/h (0 Bft) 100,00 %
17.04.2021 07:54 3,0 C 2,8 C 0,6 C 85 % 1026,6 hPa 0,0 l/m 0 min 0 min 42 W/m 0,0 km/h (0 Bft) 100,00 %
17.04.2021 07:56 3,1 C 2,8 C 0,6 C 85 % 1026,7 hPa 0,0 l/m 0 min 0 min 43 W/m 6,4 km/h (2 Bft) 100,00 %
17.04.2021 07:58 3,1 C 3,3 C 0,6 C 85 % 1026,6 hPa 0,0 l/m 0 min 0 min 45 W/m 3,2 km/h (1 Bft) 100,00 %
17.04.2021 08:00 3,1 C 3,3 C 0,6 C 85 % 1026,7 hPa 0,0 l/m 0 min 0 min 47 W/m 3,2 km/h (1 Bft) 100,00 %
17.04.2021 08:02 3,1 C 3,3 C 0,6 C 85 % 1026,7 hPa 0,0 l/m 0 min 0 min 51 W/m 3,2 km/h (1 Bft) 100,00 %
17.04.2021 08:04 3,1 C 3,3 C 1,1 C 85 % 1026,7 hPa 0,0 l/m 0 min 0 min 55 W/m 3,2 km/h (1 Bft) 93,62 %
17.04.2021 08:06 3,2 C 3,3 C 1,1 C 85 % 1026,7 hPa 0,0 l/m 0 min 0 min 62 W/m 3,2 km/h (1 Bft) 100,00 %
17.04.2021 08:08 3,3 C 3,3 C 1,1 C 85 % 1026,7 hPa 0,0 l/m 0 min 0 min 68 W/m 3,2 km/h (1 Bft) 100,00 %
17.04.2021 08:10 3,3 C 3,3 C 1,1 C 85 % 1026,7 hPa 0,0 l/m 0 min 0 min 74 W/m 3,2 km/h (1 Bft) 97,87 %
17.04.2021 08:12 3,3 C 3,9 C 1,1 C 85 % 1026,6 hPa 0,0 l/m 0 min 0 min 78 W/m 3,2 km/h (1 Bft) 97,87 %
17.04.2021 08:14 3,3 C 3,9 C 1,1 C 85 % 1026,6 hPa 0,0 l/m 0 min 0 min 83 W/m 3,2 km/h (1 Bft) 93,62 %
17.04.2021 08:16 3,4 C 3,9 C 1,1 C 85 % 1026,7 hPa 0,0 l/m 0 min 0 min 86 W/m 3,2 km/h (1 Bft) 56,82 %
17.04.2021 08:18 3,4 C 3,9 C 1,7 C 85 % 1026,7 hPa 0,0 l/m 0 min 0 min 88 W/m 6,4 km/h (2 Bft) 97,83 %
17.04.2021 08:20 3,5 C 3,9 C 1,7 C 85 % 1026,7 hPa 0,0 l/m 0 min 0 min 88 W/m 6,4 km/h (2 Bft) 95,74 %
17.04.2021 08:22 3,5 C 4,4 C 1,7 C 85 % 1026,7 hPa 0,0 l/m 0 min 0 min 85 W/m 12,9 km/h (3 Bft) 93,62 %
17.04.2021 08:24 3,6 C 4,4 C 1,7 C 85 % 1026,7 hPa 0,0 l/m 0 min 0 min 81 W/m 6,4 km/h (2 Bft) 97,87 %
17.04.2021 08:26 3,6 C 4,4 C 1,7 C 85 % 1026,7 hPa 0,0 l/m 0 min 0 min 77 W/m 9,7 km/h (2 Bft) 97,87 %
17.04.2021 08:28 3,7 C 4,4 C 1,7 C 85 % 1026,7 hPa 0,0 l/m 0 min 0 min 72 W/m 6,4 km/h (2 Bft) 97,87 %
17.04.2021 08:30 3,8 C 4,4 C 1,7 C 85 % 1026,7 hPa 0,0 l/m 0 min 0 min 69 W/m 6,4 km/h (2 Bft) 97,83 %
17.04.2021 08:32 3,9 C 4,4 C 1,7 C 85 % 1026,7 hPa 0,0 l/m 0 min 0 min 65 W/m 9,7 km/h (2 Bft) 92,45 %
17.04.2021 08:34 3,9 C 4,4 C 1,7 C 85 % 1026,7 hPa 0,0 l/m 0 min 0 min 62 W/m 6,4 km/h (2 Bft) 95,74 %
17.04.2021 08:36 4,0 C 4,4 C 1,7 C 85 % 1026,7 hPa 0,0 l/m 0 min 0 min 59 W/m 12,9 km/h (3 Bft) 95,74 %
17.04.2021 08:38 4,0 C 4,4 C 1,7 C 84 % 1026,7 hPa 0,0 l/m 0 min 0 min 56 W/m 9,7 km/h (2 Bft) 95,83 %
17.04.2021 08:40 4,0 C 4,4 C 1,7 C 84 % 1026,7 hPa 0,0 l/m 0 min 0 min 56 W/m 9,7 km/h (2 Bft) 95,65 %
17.04.2021 08:42 4,1 C 4,4 C 1,7 C 84 % 1026,7 hPa 0,0 l/m 0 min 0 min 56 W/m 9,7 km/h (2 Bft) 95,74 %
17.04.2021 08:44 4,1 C 4,4 C 2,3 C 84 % 1026,7 hPa 0,0 l/m 0 min 0 min 58 W/m 6,4 km/h (2 Bft) 95,74 %
17.04.2021 08:46 4,2 C 4,4 C 2,3 C 84 % 1026,7 hPa 0,0 l/m 0 min 0 min 80 W/m 12,9 km/h (3 Bft) 95,74 %
17.04.2021 08:48 4,3 C 4,4 C 2,3 C 84 % 1026,7 hPa 0,0 l/m 2 min 0 min 294 W/m 9,7 km/h (2 Bft) 93,62 %
17.04.2021 08:50 4,3 C 4,4 C 2,3 C 83 % 1026,7 hPa 0,0 l/m 2 min 0 min 305 W/m 16,1 km/h (3 Bft) 95,74 %
17.04.2021 08:52 4,3 C 4,4 C 2,3 C 83 % 1026,7 hPa 0,0 l/m 2 min 0 min 311 W/m 12,9 km/h (3 Bft) 97,83 %
17.04.2021 08:54 4,3 C 5,0 C 2,3 C 83 % 1026,7 hPa 0,0 l/m 2 min 0 min 317 W/m 9,7 km/h (2 Bft) 95,74 %
17.04.2021 08:56 4,4 C 5,0 C 2,3 C 83 % 1026,7 hPa 0,0 l/m 2 min 0 min 324 W/m 9,7 km/h (2 Bft) 93,62 %
17.04.2021 08:58 4,4 C 5,0 C 2,3 C 83 % 1026,6 hPa 0,0 l/m 2 min 0 min 330 W/m 6,4 km/h (2 Bft) 95,74 %
17.04.2021 09:00 4,5 C 5,6 C 2,3 C 83 % 1026,7 hPa 0,0 l/m 2 min 0 min 335 W/m 9,7 km/h (2 Bft) 97,87 %
17.04.2021 09:02 4,6 C 6,7 C 2,3 C 83 % 1026,7 hPa 0,0 l/m 2 min 0 min 341 W/m 9,7 km/h (2 Bft) 95,74 %
17.04.2021 09:04 4,7 C 8,3 C 2,8 C 83 % 1026,6 hPa 0,0 l/m 2 min 0 min 345 W/m 12,9 km/h (3 Bft) 97,83 %
17.04.2021 09:06 4,9 C 9,4 C 2,8 C 83 % 1026,7 hPa 0,0 l/m 2 min 0 min 352 W/m 6,4 km/h (2 Bft) 95,74 %
17.04.2021 09:08 5,0 C 10,0 C 2,8 C 83 % 1026,6 hPa 0,0 l/m 2 min 0 min 361 W/m 19,3 km/h (3 Bft) 97,92 %
17.04.2021 09:10 5,2 C 10,6 C 2,8 C 83 % 1026,6 hPa 0,0 l/m 2 min 0 min 368 W/m 12,9 km/h (3 Bft) 97,87 %
17.04.2021 09:12 5,4 C 10,6 C 2,8 C 82 % 1026,6 hPa 0,0 l/m 2 min 0 min 373 W/m 16,1 km/h (3 Bft) 97,87 %
17.04.2021 09:14 5,5 C 11,7 C 2,8 C 81 % 1026,5 hPa 0,0 l/m 2 min 0 min 376 W/m 12,9 km/h (3 Bft) 97,83 %
17.04.2021 09:16 5,7 C 12,2 C 3,4 C 81 % 1026,5 hPa 0,0 l/m 2 min 0 min 380 W/m 6,4 km/h (2 Bft) 100,00 %
17.04.2021 09:18 5,9 C 12,8 C 3,4 C 81 % 1026,5 hPa 0,0 l/m 2 min 0 min 385 W/m 9,7 km/h (2 Bft) 97,87 %
17.04.2021 09:20 6,1 C 13,3 C 3,9 C 80 % 1026,5 hPa 0,0 l/m 2 min 0 min 391 W/m 16,1 km/h (3 Bft) 100,00 %
17.04.2021 09:22 6,4 C 13,3 C 5,6 C 79 % 1026,5 hPa 0,0 l/m 2 min 0 min 398 W/m 12,9 km/h (3 Bft) 95,74 %
17.04.2021 09:24 6,5 C 13,3 C 6,7 C 78 % 1026,5 hPa 0,0 l/m 2 min 0 min 404 W/m 6,4 km/h (2 Bft) 48,84 %
17.04.2021 09:26 6,7 C 13,3 C 7,8 C 78 % 1026,6 hPa 0,0 l/m 2 min 0 min 411 W/m 6,4 km/h (2 Bft) 97,83 %
17.04.2021 09:28 6,9 C 13,9 C 8,4 C 77 % 1026,5 hPa 0,0 l/m 2 min 0 min 418 W/m 9,7 km/h (2 Bft) 97,87 %
17.04.2021 09:30 7,1 C 13,3 C 8,9 C 76 % 1026,5 hPa 0,0 l/m 2 min 0 min 422 W/m 12,9 km/h (3 Bft) 97,87 %
17.04.2021 09:32 7,3 C 12,8 C 9,5 C 76 % 1026,5 hPa 0,0 l/m 2 min 0 min 428 W/m 6,4 km/h (2 Bft) 95,74 %
17.04.2021 09:34 7,4 C 13,3 C 9,5 C 76 % 1026,5 hPa 0,0 l/m 2 min 0 min 435 W/m 9,7 km/h (2 Bft) 97,44 %
17.04.2021 09:36 7,5 C 13,9 C 10,6 C 76 % 1026,5 hPa 0,0 l/m 2 min 0 min 440 W/m 3,2 km/h (1 Bft) 93,62 %
17.04.2021 09:38 7,7 C 14,4 C 10,6 C 75 % 1026,5 hPa 0,0 l/m 2 min 0 min 444 W/m 19,3 km/h (3 Bft) 97,87 %
17.04.2021 09:40 7,9 C 14,4 C 10,6 C 75 % 1026,5 hPa 0,0 l/m 2 min 0 min 450 W/m 9,7 km/h (2 Bft) 98,08 %
17.04.2021 09:42 8,0 C 13,9 C 11,1 C 74 % 1026,5 hPa 0,0 l/m 2 min 0 min 455 W/m 9,7 km/h (2 Bft) 97,87 %
17.04.2021 09:44 8,1 C 14,4 C 11,1 C 74 % 1026,5 hPa 0,0 l/m 2 min 0 min 460 W/m 6,4 km/h (2 Bft) 95,74 %
17.04.2021 09:46 8,3 C 15,6 C 10,6 C 74 % 1026,5 hPa 0,0 l/m 2 min 0 min 468 W/m 9,7 km/h (2 Bft) 97,87 %
17.04.2021 09:48 8,4 C 16,1 C 10,6 C 73 % 1026,5 hPa 0,0 l/m 2 min 0 min 474 W/m 12,9 km/h (3 Bft) 100,00 %
17.04.2021 09:50 8,5 C 15,6 C 10,0 C 72 % 1026,5 hPa 0,0 l/m 2 min 0 min 478 W/m 9,7 km/h (2 Bft) 97,87 %
17.04.2021 09:52 8,6 C 15,6 C 9,5 C 72 % 1026,5 hPa 0,0 l/m 2 min 0 min 485 W/m 6,4 km/h (2 Bft) 97,83 %
17.04.2021 09:54 8,8 C 15,6 C 9,5 C 71 % 1026,4 hPa 0,0 l/m 2 min 0 min 487 W/m 9,7 km/h (2 Bft) 97,87 %
17.04.2021 09:56 8,8 C 15,6 C 9,5 C 71 % 1026,5 hPa 0,0 l/m 2 min 0 min 491 W/m 12,9 km/h (3 Bft) 97,87 %
17.04.2021 09:58 8,9 C 15,6 C 9,5 C 71 % 1026,5 hPa 0,0 l/m 2 min 0 min 495 W/m 6,4 km/h (2 Bft) 95,12 %
17.04.2021 10:00 9,0 C 15,6 C 8,9 C 71 % 1026,5 hPa 0,0 l/m 2 min 0 min 501 W/m 6,4 km/h (2 Bft) 97,87 %
17.04.2021 10:02 9,1 C 15,6 C 8,4 C 71 % 1026,5 hPa 0,0 l/m 2 min 0 min 507 W/m 12,9 km/h (3 Bft) 96,23 %
17.04.2021 10:04 9,1 C 15,6 C 8,4 C 71 % 1026,5 hPa 0,0 l/m 2 min 0 min 481 W/m 9,7 km/h (2 Bft) 100,00 %
17.04.2021 10:06 9,1 C 16,1 C 8,4 C 71 % 1026,4 hPa 0,0 l/m 2 min 0 min 513 W/m 12,9 km/h (3 Bft) 93,62 %
17.04.2021 10:08 9,2 C 16,1 C 7,8 C 71 % 1026,4 hPa 0,0 l/m 2 min 0 min 409 W/m 12,9 km/h (3 Bft) 98,15 %
17.04.2021 10:10 9,3 C 15,6 C 8,4 C 71 % 1026,4 hPa 0,0 l/m 0 min 0 min 259 W/m 12,9 km/h (3 Bft) 97,87 %
17.04.2021 10:12 9,4 C 15,0 C 9,5 C 70 % 1026,5 hPa 0,0 l/m 0 min 0 min 178 W/m 16,1 km/h (3 Bft) 97,87 %
17.04.2021 10:14 9,4 C 15,0 C 10,6 C 70 % 1026,4 hPa 0,0 l/m 2 min 0 min 365 W/m 6,4 km/h (2 Bft) 95,65 %
17.04.2021 10:16 9,5 C 15,0 C 11,1 C 70 % 1026,4 hPa 0,0 l/m 2 min 0 min 364 W/m 9,7 km/h (2 Bft) 97,87 %
17.04.2021 10:18 9,6 C 14,4 C 11,7 C 69 % 1026,4 hPa 0,0 l/m 0 min 0 min 200 W/m 9,7 km/h (2 Bft) 95,74 %
17.04.2021 10:20 9,6 C 15,0 C 11,7 C 69 % 1026,4 hPa 0,0 l/m 0 min 0 min 162 W/m 9,7 km/h (2 Bft) 97,87 %
17.04.2021 10:22 9,7 C 15,0 C 12,8 C 69 % 1026,3 hPa 0,0 l/m 0 min 0 min 140 W/m 9,7 km/h (2 Bft) 97,87 %
17.04.2021 10:24 9,8 C 15,0 C 13,4 C 69 % 1026,4 hPa 0,0 l/m 2 min 0 min 279 W/m 9,7 km/h (2 Bft) 95,74 %
17.04.2021 10:26 9,9 C 13,9 C 12,8 C 69 % 1026,4 hPa 0,0 l/m 2 min 0 min 474 W/m 12,9 km/h (3 Bft) 97,83 %
17.04.2021 10:28 9,9 C 13,3 C 11,7 C 68 % 1026,3 hPa 0,0 l/m 2 min 0 min 522 W/m 9,7 km/h (2 Bft) 97,87 %
17.04.2021 10:30 9,9 C 12,8 C 10,6 C 68 % 1026,3 hPa 0,0 l/m 2 min 0 min 570 W/m 9,7 km/h (2 Bft) 97,87 %
17.04.2021 10:32 9,8 C 12,2 C 10,6 C 68 % 1026,3 hPa 0,0 l/m 2 min 0 min 552 W/m 12,9 km/h (3 Bft) 97,87 %
17.04.2021 10:34 9,9 C 12,8 C 11,1 C 69 % 1026,3 hPa 0,0 l/m 2 min 0 min 538 W/m 12,9 km/h (3 Bft) 97,87 %
17.04.2021 10:36 9,9 C 12,2 C 10,6 C 68 % 1026,3 hPa 0,0 l/m 0 min 0 min 182 W/m 12,9 km/h (3 Bft) 93,62 %
17.04.2021 10:38 9,9 C 12,8 C 10,6 C 68 % 1026,3 hPa 0,0 l/m 2 min 0 min 398 W/m 12,9 km/h (3 Bft) 97,87 %
17.04.2021 10:40 10,0 C 12,8 C 11,7 C 68 % 1026,3 hPa 0,0 l/m 2 min 0 min 591 W/m 16,1 km/h (3 Bft) 97,87 %
17.04.2021 10:42 10,0 C 13,3 C 12,3 C 68 % 1026,2 hPa 0,0 l/m 2 min 0 min 594 W/m 12,9 km/h (3 Bft) 97,87 %
17.04.2021 10:44 10,1 C 13,9 C 11,7 C 67 % 1026,2 hPa 0,0 l/m 2 min 0 min 598 W/m 6,4 km/h (2 Bft) 97,87 %
17.04.2021 10:46 10,1 C 13,3 C 12,3 C 68 % 1026,2 hPa 0,0 l/m 2 min 0 min 603 W/m 9,7 km/h (2 Bft) 95,74 %
17.04.2021 10:48 10,2 C 12,8 C 12,8 C 68 % 1026,2 hPa 0,0 l/m 2 min 0 min 612 W/m 16,1 km/h (3 Bft) 95,74 %
17.04.2021 10:50 10,3 C 13,3 C 12,8 C 67 % 1026,3 hPa 0,0 l/m 2 min 0 min 611 W/m 19,3 km/h (3 Bft) 97,83 %
17.04.2021 10:52 10,4 C 13,3 C 12,3 C 67 % 1026,3 hPa 0,0 l/m 2 min 0 min 592 W/m 22,5 km/h (4 Bft) 97,87 %
17.04.2021 10:54 10,4 C 13,3 C 13,4 C 66 % 1026,3 hPa 0,0 l/m 0 min 0 min 234 W/m 12,9 km/h (3 Bft) 100,00 %
17.04.2021 10:56 10,4 C 12,8 C 12,3 C 66 % 1026,2 hPa 0,0 l/m 0 min 0 min 296 W/m 9,7 km/h (2 Bft) 95,74 %
17.04.2021 10:58 10,4 C 12,2 C 11,7 C 66 % 1026,3 hPa 0,0 l/m 2 min 0 min 434 W/m 19,3 km/h (3 Bft) 97,87 %
17.04.2021 11:00 10,4 C 12,2 C 10,6 C 65 % 1026,2 hPa 0,0 l/m 2 min 0 min 625 W/m 16,1 km/h (3 Bft) 100,00 %
17.04.2021 11:02 10,4 C 12,8 C 10,0 C 66 % 1026,2 hPa 0,0 l/m 2 min 0 min 635 W/m 16,1 km/h (3 Bft) 97,83 %
17.04.2021 11:04 10,4 C 12,8 C 10,0 C 65 % 1026,2 hPa 0,0 l/m 2 min 0 min 640 W/m 12,9 km/h (3 Bft) 97,87 %
17.04.2021 11:06 10,4 C 12,8 C 10,0 C 66 % 1026,2 hPa 0,0 l/m 2 min 0 min 637 W/m 12,9 km/h (3 Bft) 97,87 %
17.04.2021 11:08 10,5 C 13,3 C 10,6 C 66 % 1026,2 hPa 0,0 l/m 2 min 0 min 646 W/m 22,5 km/h (4 Bft) 100,00 %
17.04.2021 11:10 10,5 C 12,8 C 10,0 C 65 % 1026,2 hPa 0,0 l/m 2 min 0 min 652 W/m 19,3 km/h (3 Bft) 97,87 %
17.04.2021 11:12 10,5 C 12,8 C 10,0 C 65 % 1026,2 hPa 0,0 l/m 2 min 0 min 654 W/m 16,1 km/h (3 Bft) 97,87 %
17.04.2021 11:14 10,5 C 12,2 C 9,5 C 64 % 1026,2 hPa 0,0 l/m 2 min 0 min 659 W/m 9,7 km/h (2 Bft) 97,83 %
17.04.2021 11:16 10,5 C 12,2 C 8,9 C 64 % 1026,2 hPa 0,0 l/m 2 min 0 min 662 W/m 19,3 km/h (3 Bft) 100,00 %
17.04.2021 11:18 10,6 C 12,2 C 8,9 C 63 % 1026,2 hPa 0,0 l/m 2 min 0 min 663 W/m 16,1 km/h (3 Bft) 97,87 %
17.04.2021 11:20 10,6 C 12,8 C 10,0 C 62 % 1026,2 hPa 0,0 l/m 2 min 0 min 671 W/m 12,9 km/h (3 Bft) 95,74 %
17.04.2021 11:22 10,8 C 13,9 C 10,0 C 63 % 1026,2 hPa 0,0 l/m 2 min 0 min 673 W/m 16,1 km/h (3 Bft) 95,74 %
17.04.2021 11:24 10,9 C 13,9 C 10,6 C 62 % 1026,2 hPa 0,0 l/m 2 min 0 min 676 W/m 22,5 km/h (4 Bft) 95,74 %
17.04.2021 11:26 11,0 C 14,4 C 11,7 C 63 % 1026,2 hPa 0,0 l/m 2 min 0 min 682 W/m 16,1 km/h (3 Bft) 95,65 %
17.04.2021 11:28 11,0 C 14,4 C 11,7 C 62 % 1026,2 hPa 0,0 l/m 2 min 0 min 680 W/m 19,3 km/h (3 Bft) 97,87 %
17.04.2021 11:30 11,1 C 15,0 C 11,1 C 61 % 1026,2 hPa 0,0 l/m 2 min 0 min 689 W/m 22,5 km/h (4 Bft) 97,87 %
17.04.2021 11:32 11,2 C 15,0 C 10,6 C 61 % 1026,1 hPa 0,0 l/m 2 min 0 min 694 W/m 22,5 km/h (4 Bft) 97,87 %
17.04.2021 11:34 11,3 C 15,6 C 10,6 C 61 % 1026,2 hPa 0,0 l/m 2 min 0 min 693 W/m 12,9 km/h (3 Bft) 97,87 %
17.04.2021 11:36 11,4 C 15,6 C 11,1 C 61 % 1026,1 hPa 0,0 l/m 2 min 0 min 699 W/m 16,1 km/h (3 Bft) 97,44 %
17.04.2021 11:38 11,5 C 15,6 C 12,3 C 60 % 1026,1 hPa 0,0 l/m 2 min 0 min 706 W/m 25,7 km/h (4 Bft) 97,87 %
17.04.2021 11:40 11,5 C 15,6 C 13,4 C 61 % 1026,1 hPa 0,0 l/m 2 min 0 min 710 W/m 19,3 km/h (3 Bft) 96,15 %
17.04.2021 11:42 11,6 C 15,0 C 14,5 C 60 % 1026,1 hPa 0,0 l/m 2 min 0 min 714 W/m 25,7 km/h (4 Bft) 95,74 %
17.04.2021 11:44 11,7 C 15,6 C 15,6 C 59 % 1026,0 hPa 0,0 l/m 2 min 0 min 720 W/m 12,9 km/h (3 Bft) 100,00 %
17.04.2021 11:46 11,8 C 15,6 C 16,7 C 58 % 1026,0 hPa 0,0 l/m 2 min 0 min 727 W/m 12,9 km/h (3 Bft) 97,87 %
17.04.2021 11:48 11,8 C 15,0 C 15,6 C 57 % 1026,1 hPa 0,0 l/m 2 min 0 min 739 W/m 19,3 km/h (3 Bft) 97,87 %
17.04.2021 11:50 11,9 C 15,0 C 15,6 C 58 % 1026,0 hPa 0,0 l/m 2 min 0 min 745 W/m 19,3 km/h (3 Bft) 97,83 %
17.04.2021 11:52 12,0 C 15,6 C 15,6 C 58 % 1026,0 hPa 0,0 l/m 2 min 0 min 754 W/m 19,3 km/h (3 Bft) 97,87 %
17.04.2021 11:54 12,1 C 15,6 C 16,7 C 57 % 1025,9 hPa 0,0 l/m 2 min 0 min 769 W/m 19,3 km/h (3 Bft) 97,87 %
17.04.2021 11:56 12,3 C 15,6 C 17,3 C 58 % 1025,9 hPa 0,0 l/m 2 min 0 min 797 W/m 22,5 km/h (4 Bft) 97,87 %
17.04.2021 11:58 12,4 C 16,1 C 16,7 C 58 % 1025,9 hPa 0,0 l/m 2 min 0 min 817 W/m 25,7 km/h (4 Bft) 93,62 %
17.04.2021 12:00 12,5 C 16,7 C 17,8 C 58 % 1025,9 hPa 0,0 l/m 2 min 0 min 838 W/m 19,3 km/h (3 Bft) 97,87 %
17.04.2021 12:02 12,6 C 17,2 C 18,4 C 57 % 1025,8 hPa 0,0 l/m 2 min 0 min 848 W/m 16,1 km/h (3 Bft) 97,87 %
17.04.2021 12:04 12,6 C 16,7 C 18,9 C 57 % 1025,8 hPa 0,0 l/m 2 min 0 min 826 W/m 9,7 km/h (2 Bft) 97,87 %
17.04.2021 12:08 12,6 C 16,7 C 17,8 C 56 % 1025,7 hPa 0,0 l/m 4 min 0 min 816 W/m 32,2 km/h (5 Bft) 100,00 %
17.04.2021 12:10 12,6 C 16,1 C 18,4 C 55 % 1025,7 hPa 0,0 l/m 2 min 0 min 787 W/m 16,1 km/h (3 Bft) 100,00 %
17.04.2021 12:12 12,5 C 16,1 C 18,9 C 55 % 1025,7 hPa 0,0 l/m 2 min 0 min 795 W/m 25,7 km/h (4 Bft) 100,00 %
17.04.2021 12:14 12,6 C 16,7 C 19,5 C 56 % 1025,5 hPa 0,0 l/m 2 min 0 min 800 W/m 12,9 km/h (3 Bft) 97,87 %
17.04.2021 12:16 12,6 C 17,2 C 18,9 C 57 % 1025,6 hPa 0,0 l/m 2 min 0 min 803 W/m 12,9 km/h (3 Bft) 97,87 %
17.04.2021 12:18 12,7 C 16,7 C 18,9 C 56 % 1025,5 hPa 0,0 l/m 2 min 0 min 842 W/m 22,5 km/h (4 Bft) 100,00 %
17.04.2021 12:20 12,7 C 16,7 C 18,9 C 57 % 1025,5 hPa 0,0 l/m 2 min 0 min 887 W/m 19,3 km/h (3 Bft) 100,00 %
17.04.2021 12:22 12,7 C 17,2 C 19,5 C 57 % 1025,5 hPa 0,0 l/m 2 min 0 min 931 W/m 19,3 km/h (3 Bft) 97,87 %
17.04.2021 12:24 12,8 C 17,2 C 19,5 C 56 % 1025,5 hPa 0,0 l/m 2 min 0 min 1002 W/m 22,5 km/h (4 Bft) 100,00 %
17.04.2021 12:26 12,8 C 16,7 C 18,9 C 54 % 1025,5 hPa 0,0 l/m 2 min 0 min 907 W/m 25,7 km/h (4 Bft) 97,87 %
17.04.2021 12:28 12,5 C 16,1 C 15,6 C 55 % 1025,4 hPa 0,0 l/m 2 min 0 min 647 W/m 38,6 km/h (5 Bft) 100,00 %
17.04.2021 12:30 12,5 C 15,0 C 13,4 C 55 % 1025,4 hPa 0,0 l/m 2 min 0 min 413 W/m 19,3 km/h (3 Bft) 100,00 %
17.04.2021 12:32 12,4 C 14,4 C 13,4 C 54 % 1025,3 hPa 0,0 l/m 2 min 0 min 479 W/m 19,3 km/h (3 Bft) 100,00 %
17.04.2021 12:34 12,4 C 15,0 C 13,4 C 56 % 1025,4 hPa 0,0 l/m 2 min 0 min 528 W/m 29,0 km/h (5 Bft) 100,00 %
17.04.2021 12:36 12,4 C 15,6 C 13,4 C 57 % 1025,4 hPa 0,0 l/m 2 min 0 min 588 W/m 35,4 km/h (5 Bft) 100,00 %
17.04.2021 12:38 12,4 C 15,0 C 13,4 C 57 % 1025,3 hPa 0,0 l/m 2 min 0 min 531 W/m 22,5 km/h (4 Bft) 100,00 %
17.04.2021 12:40 12,3 C 15,0 C 13,9 C 57 % 1025,3 hPa 0,0 l/m 2 min 0 min 605 W/m 16,1 km/h (3 Bft) 100,00 %
17.04.2021 12:42 12,3 C 15,6 C 13,4 C 58 % 1025,3 hPa 0,0 l/m 2 min 0 min 557 W/m 25,7 km/h (4 Bft) 100,00 %
17.04.2021 12:44 12,3 C 15,6 C 12,8 C 58 % 1025,3 hPa 0,0 l/m 2 min 0 min 525 W/m 19,3 km/h (3 Bft) 100,00 %
17.04.2021 12:46 12,4 C 16,1 C 13,9 C 58 % 1025,3 hPa 0,0 l/m 2 min 0 min 619 W/m 16,1 km/h (3 Bft) 100,00 %
17.04.2021 12:48 12,4 C 16,1 C 14,5 C 57 % 1025,3 hPa 0,0 l/m 2 min 0 min 624 W/m 16,1 km/h (3 Bft) 100,00 %
17.04.2021 12:50 12,5 C 16,1 C 14,5 C 57 % 1025,3 hPa 0,0 l/m 2 min 0 min 723 W/m 16,1 km/h (3 Bft) 100,00 %
17.04.2021 12:52 12,5 C 16,1 C 15,0 C 56 % 1025,3 hPa 0,0 l/m 2 min 0 min 659 W/m 9,7 km/h (2 Bft) 100,00 %
17.04.2021 12:54 12,5 C 16,1 C 15,6 C 56 % 1025,3 hPa 0,0 l/m 2 min 0 min 733 W/m 16,1 km/h (3 Bft) 100,00 %
17.04.2021 12:56 12,6 C 16,7 C 14,5 C 57 % 1025,2 hPa 0,0 l/m 2 min 0 min 597 W/m 12,9 km/h (3 Bft) 100,00 %
17.04.2021 12:58 12,8 C 16,7 C 13,9 C 57 % 1025,2 hPa 0,0 l/m 2 min 0 min 535 W/m 12,9 km/h (3 Bft) 100,00 %
17.04.2021 13:00 12,8 C 16,1 C 13,4 C 57 % 1025,2 hPa 0,0 l/m 2 min 0 min 471 W/m 29,0 km/h (5 Bft) 100,00 %
17.04.2021 13:02 12,8 C 15,6 C 12,8 C 56 % 1025,2 hPa 0,0 l/m 2 min 0 min 500 W/m 19,3 km/h (3 Bft) 100,00 %
17.04.2021 13:04 12,8 C 15,6 C 13,4 C 56 % 1025,2 hPa 0,0 l/m 2 min 0 min 660 W/m 19,3 km/h (3 Bft) 100,00 %
17.04.2021 13:06 12,9 C 16,1 C 12,8 C 56 % 1025,2 hPa 0,0 l/m 2 min 0 min 701 W/m 16,1 km/h (3 Bft) 100,00 %
17.04.2021 13:08 12,9 C 16,1 C 12,8 C 56 % 1025,1 hPa 0,0 l/m 2 min 0 min 756 W/m 12,9 km/h (3 Bft) 100,00 %
17.04.2021 13:10 13,0 C 17,2 C 12,8 C 57 % 1025,1 hPa 0,0 l/m 2 min 0 min 702 W/m 9,7 km/h (2 Bft) 97,83 %
17.04.2021 13:12 13,0 C 16,7 C 12,8 C 57 % 1025,1 hPa 0,0 l/m 2 min 0 min 656 W/m 22,5 km/h (4 Bft) 100,00 %
17.04.2021 13:14 13,1 C 16,7 C 12,8 C 57 % 1025,1 hPa 0,0 l/m 2 min 0 min 764 W/m 25,7 km/h (4 Bft) 100,00 %
17.04.2021 13:16 13,2 C 17,2 C 13,4 C 56 % 1025,1 hPa 0,0 l/m 2 min 0 min 889 W/m 19,3 km/h (3 Bft) 100,00 %
17.04.2021 13:18 13,3 C 17,2 C 12,8 C 57 % 1025,0 hPa 0,0 l/m 2 min 0 min 827 W/m 19,3 km/h (3 Bft) 100,00 %
17.04.2021 13:20 13,2 C 16,7 C 12,3 C 57 % 1025,0 hPa 0,0 l/m 0 min 0 min 359 W/m 25,7 km/h (4 Bft) 97,87 %
17.04.2021 13:22 13,1 C 15,6 C 11,7 C 57 % 1024,9 hPa 0,0 l/m 2 min 0 min 389 W/m 19,3 km/h (3 Bft) 100,00 %
17.04.2021 13:24 13,1 C 15,6 C 13,4 C 57 % 1024,9 hPa 0,0 l/m 2 min 0 min 550 W/m 16,1 km/h (3 Bft) 100,00 %
17.04.2021 13:26 13,1 C 16,1 C 13,9 C 58 % 1024,9 hPa 0,0 l/m 2 min 0 min 881 W/m 12,9 km/h (3 Bft) 91,49 %
17.04.2021 13:28 13,2 C 16,1 C 12,8 C 58 % 1024,9 hPa 0,0 l/m 0 min 0 min 361 W/m 12,9 km/h (3 Bft) 97,87 %
17.04.2021 13:30 13,3 C 16,1 C 12,3 C 58 % 1024,8 hPa 0,0 l/m 0 min 0 min 337 W/m 9,7 km/h (2 Bft) 95,74 %
17.04.2021 13:32 13,3 C 15,0 C 11,7 C 58 % 1024,9 hPa 0,0 l/m 0 min 0 min 335 W/m 19,3 km/h (3 Bft) 95,74 %
17.04.2021 13:34 13,3 C 15,0 C 11,7 C 58 % 1024,9 hPa 0,0 l/m 2 min 0 min 408 W/m 19,3 km/h (3 Bft) 95,65 %
17.04.2021 13:36 13,1 C 15,0 C 12,3 C 58 % 1024,9 hPa 0,0 l/m 2 min 0 min 429 W/m 16,1 km/h (3 Bft) 97,87 %
17.04.2021 13:38 13,1 C 15,0 C 12,3 C 58 % 1024,8 hPa 0,0 l/m 2 min 0 min 428 W/m 12,9 km/h (3 Bft) 97,83 %
17.04.2021 13:40 13,0 C 14,4 C 12,3 C 57 % 1024,8 hPa 0,0 l/m 2 min 0 min 371 W/m 29,0 km/h (5 Bft) 95,74 %
17.04.2021 13:42 12,9 C 14,4 C 11,7 C 57 % 1024,8 hPa 0,0 l/m 2 min 0 min 396 W/m 16,1 km/h (3 Bft) 97,87 %
17.04.2021 13:44 12,9 C 15,0 C 11,7 C 57 % 1024,8 hPa 0,0 l/m 2 min 0 min 492 W/m 32,2 km/h (5 Bft) 97,87 %
17.04.2021 13:46 12,9 C 15,6 C 11,7 C 57 % 1024,7 hPa 0,0 l/m 2 min 0 min 494 W/m 19,3 km/h (3 Bft) 97,83 %
17.04.2021 13:48 12,9 C 16,1 C 12,3 C 57 % 1024,7 hPa 0,0 l/m 2 min 0 min 452 W/m 22,5 km/h (4 Bft) 97,87 %
17.04.2021 13:50 12,9 C 17,2 C 12,3 C 57 % 1024,7 hPa 0,0 l/m 2 min 0 min 462 W/m 9,7 km/h (2 Bft) 97,87 %
17.04.2021 13:52 13,1 C 17,8 C 12,8 C 57 % 1024,7 hPa 0,0 l/m 2 min 0 min 954 W/m 22,5 km/h (4 Bft) 95,74 %
17.04.2021 13:54 13,4 C 18,3 C 12,8 C 56 % 1024,7 hPa 0,0 l/m 2 min 0 min 989 W/m 25,7 km/h (4 Bft) 97,87 %
17.04.2021 13:56 13,5 C 17,8 C 12,8 C 56 % 1024,7 hPa 0,0 l/m 2 min 0 min 763 W/m 22,5 km/h (4 Bft) 97,87 %
17.04.2021 13:58 13,6 C 17,2 C 12,3 C 55 % 1024,7 hPa 0,0 l/m 2 min 0 min 455 W/m 16,1 km/h (3 Bft) 97,83 %
17.04.2021 14:00 13,6 C 17,8 C 12,3 C 56 % 1024,7 hPa 0,0 l/m 2 min 0 min 630 W/m 12,9 km/h (3 Bft) 89,36 %
17.04.2021 14:02 13,8 C 18,9 C 12,3 C 56 % 1024,7 hPa 0,0 l/m 2 min 0 min 1018 W/m 19,3 km/h (3 Bft) 87,50 %
17.04.2021 14:04 13,9 C 18,9 C 12,3 C 55 % 1024,6 hPa 0,0 l/m 2 min 0 min 762 W/m 22,5 km/h (4 Bft) 97,87 %
17.04.2021 14:06 13,9 C 18,3 C 12,8 C 56 % 1024,6 hPa 0,0 l/m 2 min 0 min 839 W/m 19,3 km/h (3 Bft) 97,87 %
17.04.2021 14:08 13,9 C 17,8 C 12,3 C 56 % 1024,6 hPa 0,0 l/m 2 min 0 min 416 W/m 19,3 km/h (3 Bft) 97,92 %
17.04.2021 14:10 13,8 C 16,7 C 11,7 C 55 % 1024,7 hPa 0,0 l/m 0 min 0 min 365 W/m 25,7 km/h (4 Bft) 95,65 %
17.04.2021 14:12 13,8 C 16,7 C 11,7 C 55 % 1024,7 hPa 0,0 l/m 2 min 0 min 557 W/m 22,5 km/h (4 Bft) 95,74 %
17.04.2021 14:14 13,7 C 16,7 C 11,7 C 55 % 1024,7 hPa 0,0 l/m 2 min 0 min 950 W/m 29,0 km/h (5 Bft) 93,62 %
17.04.2021 14:16 13,7 C 16,7 C 11,7 C 56 % 1024,6 hPa 0,0 l/m 2 min 0 min 820 W/m 22,5 km/h (4 Bft) 91,49 %
17.04.2021 14:18 13,6 C 16,1 C 11,7 C 55 % 1024,6 hPa 0,0 l/m 2 min 0 min 393 W/m 25,7 km/h (4 Bft) 95,74 %
17.04.2021 14:20 13,5 C 16,1 C 11,7 C 55 % 1024,6 hPa 0,0 l/m 2 min 0 min 454 W/m 19,3 km/h (3 Bft) 95,74 %
17.04.2021 14:22 13,5 C 16,1 C 11,7 C 56 % 1024,6 hPa 0,0 l/m 2 min 0 min 453 W/m 16,1 km/h (3 Bft) 97,83 %
17.04.2021 14:24 13,5 C 16,1 C 11,7 C 56 % 1024,6 hPa 0,0 l/m 2 min 0 min 457 W/m 19,3 km/h (3 Bft) 97,87 %
17.04.2021 14:26 13,5 C 16,7 C 11,7 C 56 % 1024,6 hPa 0,0 l/m 2 min 0 min 516 W/m 19,3 km/h (3 Bft) 91,49 %
17.04.2021 14:28 13,5 C 16,1 C 11,7 C 55 % 1024,6 hPa 0,0 l/m 2 min 0 min 600 W/m 19,3 km/h (3 Bft) 95,74 %
17.04.2021 14:30 13,6 C 16,7 C 12,3 C 56 % 1024,5 hPa 0,0 l/m 2 min 0 min 567 W/m 19,3 km/h (3 Bft) 97,87 %
17.04.2021 14:32 13,6 C 16,1 C 11,7 C 56 % 1024,6 hPa 0,0 l/m 2 min 0 min 431 W/m 19,3 km/h (3 Bft) 97,22 %
17.04.2021 14:34 13,6 C 15,6 C 11,7 C 55 % 1024,6 hPa 0,0 l/m 2 min 0 min 433 W/m 19,3 km/h (3 Bft) 93,62 %
17.04.2021 14:36 13,5 C 15,6 C 11,1 C 55 % 1024,6 hPa 0,0 l/m 2 min 0 min 423 W/m 9,7 km/h (2 Bft) 97,87 %
17.04.2021 14:38 13,4 C 15,0 C 11,1 C 55 % 1024,6 hPa 0,0 l/m 2 min 0 min 412 W/m 16,1 km/h (3 Bft) 91,49 %
17.04.2021 14:40 13,4 C 14,4 C 10,6 C 55 % 1024,5 hPa 0,0 l/m 0 min 0 min 205 W/m 22,5 km/h (4 Bft) 95,74 %
17.04.2021 14:42 13,2 C 13,9 C 10,6 C 56 % 1024,6 hPa 0,0 l/m 0 min 0 min 202 W/m 16,1 km/h (3 Bft) 97,87 %
17.04.2021 14:44 13,0 C 13,3 C 10,6 C 56 % 1024,5 hPa 0,0 l/m 0 min 0 min 218 W/m 16,1 km/h (3 Bft) 97,87 %
17.04.2021 14:46 13,0 C 13,3 C 10,6 C 56 % 1024,6 hPa 0,0 l/m 0 min 0 min 250 W/m 12,9 km/h (3 Bft) 97,87 %
17.04.2021 14:48 12,9 C 13,3 C 10,6 C 57 % 1024,5 hPa 0,0 l/m 0 min 0 min 291 W/m 22,5 km/h (4 Bft) 97,83 %
17.04.2021 14:50 12,8 C 13,3 C 10,6 C 57 % 1024,4 hPa 0,0 l/m 0 min 0 min 302 W/m 19,3 km/h (3 Bft) 95,74 %
17.04.2021 14:52 12,8 C 13,9 C 11,1 C 57 % 1024,4 hPa 0,0 l/m 0 min 0 min 310 W/m 9,7 km/h (2 Bft) 97,87 %
17.04.2021 14:54 12,8 C 13,9 C 11,1 C 57 % 1024,4 hPa 0,0 l/m 0 min 0 min 317 W/m 19,3 km/h (3 Bft) 95,74 %
17.04.2021 14:56 12,9 C 14,4 C 11,1 C 57 % 1024,4 hPa 0,0 l/m 0 min 0 min 329 W/m 12,9 km/h (3 Bft) 97,87 %
17.04.2021 14:58 12,9 C 14,4 C 11,1 C 57 % 1024,3 hPa 0,0 l/m 0 min 0 min 322 W/m 16,1 km/h (3 Bft) 97,87 %
17.04.2021 15:00 12,9 C 14,4 C 11,1 C 56 % 1024,3 hPa 0,0 l/m 0 min 0 min 326 W/m 12,9 km/h (3 Bft) 97,83 %
17.04.2021 15:02 12,9 C 14,4 C 11,1 C 55 % 1024,3 hPa 0,0 l/m 0 min 0 min 331 W/m 16,1 km/h (3 Bft) 100,00 %
17.04.2021 15:04 12,9 C 13,9 C 11,1 C 54 % 1024,3 hPa 0,0 l/m 0 min 0 min 329 W/m 25,7 km/h (4 Bft) 97,87 %
17.04.2021 15:06 12,9 C 14,4 C 11,1 C 55 % 1024,3 hPa 0,0 l/m 2 min 0 min 350 W/m 19,3 km/h (3 Bft) 100,00 %
17.04.2021 15:08 12,9 C 14,4 C 11,1 C 55 % 1024,3 hPa 0,0 l/m 2 min 0 min 398 W/m 12,9 km/h (3 Bft) 100,00 %
17.04.2021 15:10 13,0 C 15,0 C 11,1 C 56 % 1024,3 hPa 0,0 l/m 2 min 0 min 460 W/m 16,1 km/h (3 Bft) 100,00 %
17.04.2021 15:12 13,1 C 16,1 C 11,7 C 57 % 1024,2 hPa 0,0 l/m 2 min 0 min 458 W/m 9,7 km/h (2 Bft) 93,48 %
17.04.2021 15:14 13,2 C 16,1 C 11,7 C 55 % 1024,2 hPa 0,0 l/m 2 min 0 min 583 W/m 32,2 km/h (5 Bft) 97,87 %
17.04.2021 15:16 13,3 C 16,1 C 11,7 C 53 % 1024,2 hPa 0,0 l/m 2 min 0 min 492 W/m 25,7 km/h (4 Bft) 100,00 %
17.04.2021 15:18 13,3 C 16,1 C 11,7 C 53 % 1024,2 hPa 0,0 l/m 2 min 0 min 461 W/m 22,5 km/h (4 Bft) 100,00 %
17.04.2021 15:20 13,4 C 16,1 C 11,7 C 53 % 1024,1 hPa 0,0 l/m 2 min 0 min 547 W/m 16,1 km/h (3 Bft) 100,00 %
17.04.2021 15:22 13,5 C 16,7 C 11,7 C 53 % 1024,0 hPa 0,0 l/m 2 min 0 min 619 W/m 16,1 km/h (3 Bft) 97,87 %
17.04.2021 15:24 13,6 C 16,7 C 11,7 C 54 % 1024,1 hPa 0,0 l/m 2 min 0 min 348 W/m 12,9 km/h (3 Bft) 100,00 %
17.04.2021 15:26 13,6 C 16,1 C 11,7 C 53 % 1024,0 hPa 0,0 l/m 0 min 0 min 291 W/m 16,1 km/h (3 Bft) 100,00 %
17.04.2021 15:28 13,6 C 15,0 C 11,1 C 53 % 1024,0 hPa 0,0 l/m 0 min 0 min 293 W/m 19,3 km/h (3 Bft) 95,74 %
17.04.2021 15:30 13,5 C 15,0 C 11,1 C 54 % 1024,0 hPa 0,0 l/m 2 min 0 min 350 W/m 12,9 km/h (3 Bft) 97,87 %
17.04.2021 15:32 13,5 C 16,1 C 11,1 C 54 % 1024,0 hPa 0,0 l/m 2 min 0 min 352 W/m 19,3 km/h (3 Bft) 95,74 %
17.04.2021 15:34 13,6 C 16,7 C 11,1 C 55 % 1024,0 hPa 0,0 l/m 2 min 0 min 549 W/m 16,1 km/h (3 Bft) 95,74 %
17.04.2021 15:36 13,6 C 16,7 C 11,7 C 54 % 1024,0 hPa 0,0 l/m 2 min 0 min 477 W/m 12,9 km/h (3 Bft) 95,65 %
17.04.2021 15:38 13,6 C 16,7 C 11,7 C 55 % 1024,0 hPa 0,0 l/m 2 min 0 min 435 W/m 16,1 km/h (3 Bft) 97,87 %
17.04.2021 15:40 13,6 C 16,7 C 11,7 C 54 % 1023,9 hPa 0,0 l/m 2 min 0 min 596 W/m 19,3 km/h (3 Bft) 98,21 %
17.04.2021 15:42 13,6 C 17,2 C 11,7 C 54 % 1023,9 hPa 0,0 l/m 2 min 0 min 559 W/m 16,1 km/h (3 Bft) 97,87 %
17.04.2021 15:44 13,7 C 16,7 C 11,7 C 54 % 1023,9 hPa 0,0 l/m 2 min 0 min 404 W/m 19,3 km/h (3 Bft) 95,65 %
17.04.2021 15:46 13,7 C 16,1 C 11,7 C 54 % 1023,9 hPa 0,0 l/m 2 min 0 min 361 W/m 22,5 km/h (4 Bft) 97,87 %
17.04.2021 15:48 13,7 C 16,7 C 11,7 C 53 % 1024,0 hPa 0,0 l/m 2 min 0 min 448 W/m 22,5 km/h (4 Bft) 97,87 %
17.04.2021 15:50 13,7 C 16,7 C 11,7 C 53 % 1023,9 hPa 0,0 l/m 2 min 0 min 421 W/m 19,3 km/h (3 Bft) 97,87 %
17.04.2021 15:52 13,7 C 15,6 C 11,1 C 52 % 1023,9 hPa 0,0 l/m 0 min 0 min 283 W/m 16,1 km/h (3 Bft) 97,87 %
17.04.2021 15:54 13,7 C 15,6 C 11,1 C 52 % 1023,9 hPa 0,0 l/m 0 min 0 min 235 W/m 9,7 km/h (2 Bft) 97,87 %
17.04.2021 15:56 13,6 C 14,4 C 10,6 C 52 % 1023,8 hPa 0,0 l/m 0 min 0 min 218 W/m 12,9 km/h (3 Bft) 93,48 %
17.04.2021 15:58 13,6 C 14,4 C 10,6 C 53 % 1023,8 hPa 0,0 l/m 0 min 0 min 199 W/m 6,4 km/h (2 Bft) 97,87 %
17.04.2021 16:00 13,5 C 14,4 C 10,6 C 54 % 1023,8 hPa 0,0 l/m 0 min 0 min 199 W/m 12,9 km/h (3 Bft) 97,87 %
17.04.2021 16:02 13,5 C 13,9 C 10,6 C 53 % 1023,8 hPa 0,0 l/m 0 min 0 min 224 W/m 9,7 km/h (2 Bft) 97,87 %
17.04.2021 16:04 13,4 C 13,9 C 10,6 C 54 % 1023,8 hPa 0,0 l/m 0 min 0 min 248 W/m 12,9 km/h (3 Bft) 97,87 %
17.04.2021 16:06 13,3 C 13,9 C 10,6 C 54 % 1023,7 hPa 0,0 l/m 0 min 0 min 250 W/m 12,9 km/h (3 Bft) 97,87 %
17.04.2021 16:08 13,3 C 14,4 C 10,6 C 55 % 1023,8 hPa 0,0 l/m 0 min 0 min 248 W/m 9,7 km/h (2 Bft) 97,87 %
17.04.2021 16:10 13,2 C 14,4 C 10,6 C 55 % 1023,8 hPa 0,0 l/m 0 min 0 min 234 W/m 16,1 km/h (3 Bft) 95,74 %
17.04.2021 16:12 13,1 C 13,9 C 10,6 C 54 % 1023,7 hPa 0,0 l/m 0 min 0 min 185 W/m 16,1 km/h (3 Bft) 95,74 %
17.04.2021 16:14 13,1 C 13,9 C 10,6 C 54 % 1023,7 hPa 0,0 l/m 0 min 0 min 164 W/m 19,3 km/h (3 Bft) 97,87 %
17.04.2021 16:16 13,0 C 13,3 C 10,6 C 54 % 1023,6 hPa 0,0 l/m 0 min 0 min 154 W/m 16,1 km/h (3 Bft) 97,87 %
17.04.2021 16:18 13,0 C 13,3 C 10,0 C 54 % 1023,6 hPa 0,0 l/m 0 min 0 min 140 W/m 9,7 km/h (2 Bft) 97,87 %
17.04.2021 16:20 13,0 C 12,8 C 10,0 C 55 % 1023,6 hPa 0,0 l/m 0 min 0 min 132 W/m 16,1 km/h (3 Bft) 97,83 %
17.04.2021 16:22 12,9 C 12,8 C 10,0 C 55 % 1023,7 hPa 0,0 l/m 0 min 0 min 123 W/m 25,7 km/h (4 Bft) 97,87 %
17.04.2021 16:24 12,9 C 12,8 C 10,0 C 55 % 1023,7 hPa 0,0 l/m 0 min 0 min 110 W/m 12,9 km/h (3 Bft) 97,87 %
17.04.2021 16:26 12,8 C 12,8 C 10,0 C 54 % 1023,6 hPa 0,0 l/m 0 min 0 min 99 W/m 12,9 km/h (3 Bft) 95,74 %
17.04.2021 16:28 12,7 C 12,2 C 9,5 C 54 % 1023,7 hPa 0,0 l/m 0 min 0 min 100 W/m 12,9 km/h (3 Bft) 100,00 %
17.04.2021 16:30 12,6 C 12,2 C 9,5 C 55 % 1023,6 hPa 0,0 l/m 0 min 0 min 118 W/m 12,9 km/h (3 Bft) 100,00 %
17.04.2021 16:32 12,6 C 12,2 C 9,5 C 55 % 1023,6 hPa 0,0 l/m 0 min 0 min 142 W/m 6,4 km/h (2 Bft) 100,00 %
17.04.2021 16:34 12,5 C 12,2 C 9,5 C 56 % 1023,6 hPa 0,0 l/m 0 min 0 min 162 W/m 9,7 km/h (2 Bft) 100,00 %
17.04.2021 16:36 12,5 C 12,8 C 9,5 C 57 % 1023,6 hPa 0,0 l/m 0 min 0 min 172 W/m 9,7 km/h (2 Bft) 100,00 %
17.04.2021 16:38 12,5 C 12,8 C 10,0 C 56 % 1023,6 hPa 0,0 l/m 0 min 0 min 184 W/m 16,1 km/h (3 Bft) 100,00 %
17.04.2021 16:40 12,4 C 12,8 C 10,0 C 57 % 1023,6 hPa 0,0 l/m 0 min 0 min 195 W/m 6,4 km/h (2 Bft) 100,00 %
17.04.2021 16:42 12,5 C 13,3 C 10,0 C 57 % 1023,6 hPa 0,0 l/m 0 min 0 min 197 W/m 6,4 km/h (2 Bft) 97,87 %
17.04.2021 16:44 12,5 C 13,3 C 10,0 C 57 % 1023,5 hPa 0,0 l/m 0 min 0 min 193 W/m 6,4 km/h (2 Bft) 97,87 %
17.04.2021 16:46 12,5 C 13,3 C 10,0 C 56 % 1023,5 hPa 0,0 l/m 0 min 0 min 194 W/m 9,7 km/h (2 Bft) 97,83 %
17.04.2021 16:48 12,5 C 13,3 C 10,0 C 55 % 1023,6 hPa 0,0 l/m 0 min 0 min 195 W/m 19,3 km/h (3 Bft) 97,87 %
17.04.2021 16:50 12,5 C 13,3 C 10,0 C 54 % 1023,5 hPa 0,0 l/m 0 min 0 min 200 W/m 19,3 km/h (3 Bft) 97,87 %
17.04.2021 16:52 12,5 C 13,3 C 10,0 C 54 % 1023,5 hPa 0,0 l/m 0 min 0 min 211 W/m 16,1 km/h (3 Bft) 97,87 %
17.04.2021 16:54 12,5 C 13,3 C 10,0 C 54 % 1023,5 hPa 0,0 l/m 0 min 0 min 215 W/m 16,1 km/h (3 Bft) 97,87 %
17.04.2021 16:56 12,5 C 13,3 C 10,0 C 54 % 1023,5 hPa 0,0 l/m 0 min 0 min 223 W/m 12,9 km/h (3 Bft) 93,62 %
17.04.2021 16:58 12,5 C 13,3 C 10,0 C 54 % 1023,5 hPa 0,0 l/m 0 min 0 min 233 W/m 12,9 km/h (3 Bft) 97,83 %
17.04.2021 17:00 12,5 C 13,3 C 10,6 C 55 % 1023,5 hPa 0,0 l/m 0 min 0 min 236 W/m 9,7 km/h (2 Bft) 97,87 %
17.04.2021 17:02 12,5 C 13,3 C 10,6 C 54 % 1023,4 hPa 0,0 l/m 0 min 0 min 239 W/m 9,7 km/h (2 Bft) 95,74 %
17.04.2021 17:04 12,6 C 13,9 C 10,6 C 55 % 1023,4 hPa 0,0 l/m 0 min 0 min 238 W/m 12,9 km/h (3 Bft) 93,62 %
17.04.2021 17:06 12,6 C 13,9 C 10,6 C 54 % 1023,4 hPa 0,0 l/m 0 min 0 min 216 W/m 12,9 km/h (3 Bft) 95,74 %
17.04.2021 17:08 12,6 C 13,9 C 10,6 C 55 % 1023,4 hPa 0,0 l/m 0 min 0 min 193 W/m 9,7 km/h (2 Bft) 95,83 %
17.04.2021 17:10 12,6 C 13,3 C 10,0 C 54 % 1023,4 hPa 0,0 l/m 0 min 0 min 169 W/m 19,3 km/h (3 Bft) 95,65 %
17.04.2021 17:12 12,6 C 12,8 C 10,0 C 53 % 1023,4 hPa 0,0 l/m 0 min 0 min 164 W/m 16,1 km/h (3 Bft) 95,74 %
17.04.2021 17:14 12,5 C 13,3 C 10,0 C 53 % 1023,4 hPa 0,0 l/m 0 min 0 min 195 W/m 9,7 km/h (2 Bft) 93,62 %
17.04.2021 17:16 12,5 C 13,3 C 10,0 C 53 % 1023,4 hPa 0,0 l/m 2 min 0 min 248 W/m 12,9 km/h (3 Bft) 95,74 %
17.04.2021 17:18 12,5 C 13,9 C 10,0 C 53 % 1023,3 hPa 0,0 l/m 2 min 0 min 265 W/m 19,3 km/h (3 Bft) 95,74 %
17.04.2021 17:20 12,5 C 13,9 C 10,0 C 53 % 1023,3 hPa 0,0 l/m 2 min 0 min 243 W/m 12,9 km/h (3 Bft) 95,74 %
17.04.2021 17:22 12,5 C 14,4 C 10,0 C 54 % 1023,2 hPa 0,0 l/m 0 min 0 min 234 W/m 6,4 km/h (2 Bft) 95,65 %
17.04.2021 17:24 12,5 C 15,0 C 10,0 C 53 % 1023,3 hPa 0,0 l/m 2 min 0 min 331 W/m 16,1 km/h (3 Bft) 95,74 %
17.04.2021 17:26 12,5 C 16,1 C 10,0 C 53 % 1023,3 hPa 0,0 l/m 2 min 0 min 395 W/m 12,9 km/h (3 Bft) 95,74 %
17.04.2021 17:28 12,7 C 18,3 C 11,1 C 55 % 1023,3 hPa 0,0 l/m 2 min 0 min 566 W/m 19,3 km/h (3 Bft) 93,75 %
17.04.2021 17:30 12,9 C 17,8 C 11,1 C 54 % 1023,3 hPa 0,0 l/m 2 min 0 min 510 W/m 16,1 km/h (3 Bft) 91,49 %
17.04.2021 17:32 13,0 C 16,7 C 11,1 C 54 % 1023,2 hPa 0,0 l/m 2 min 0 min 307 W/m 6,4 km/h (2 Bft) 97,87 %
17.04.2021 17:34 13,1 C 16,7 C 11,1 C 53 % 1023,2 hPa 0,0 l/m 2 min 0 min 341 W/m 16,1 km/h (3 Bft) 95,65 %
17.04.2021 17:36 13,1 C 15,6 C 11,1 C 53 % 1023,2 hPa 0,0 l/m 2 min 0 min 250 W/m 9,7 km/h (2 Bft) 95,74 %
17.04.2021 17:38 13,2 C 15,0 C 11,1 C 52 % 1023,2 hPa 0,0 l/m 0 min 0 min 208 W/m 12,9 km/h (3 Bft) 97,92 %
17.04.2021 17:40 13,2 C 14,4 C 10,6 C 52 % 1023,2 hPa 0,0 l/m 0 min 0 min 209 W/m 9,7 km/h (2 Bft) 95,74 %
17.04.2021 17:42 13,2 C 13,9 C 10,6 C 53 % 1023,2 hPa 0,0 l/m 0 min 0 min 206 W/m 22,5 km/h (4 Bft) 97,92 %
17.04.2021 17:44 13,1 C 13,9 C 10,6 C 53 % 1023,2 hPa 0,0 l/m 0 min 0 min 198 W/m 19,3 km/h (3 Bft) 95,65 %
17.04.2021 17:46 13,1 C 13,9 C 10,0 C 53 % 1023,2 hPa 0,0 l/m 0 min 0 min 193 W/m 16,1 km/h (3 Bft) 97,87 %
17.04.2021 17:48 13,0 C 13,9 C 10,0 C 53 % 1023,2 hPa 0,0 l/m 0 min 0 min 194 W/m 19,3 km/h (3 Bft) 93,62 %
17.04.2021 17:50 12,9 C 13,9 C 10,0 C 54 % 1023,2 hPa 0,0 l/m 0 min 0 min 196 W/m 16,1 km/h (3 Bft) 95,74 %
17.04.2021 17:52 12,9 C 13,9 C 10,0 C 53 % 1023,2 hPa 0,0 l/m 2 min 0 min 205 W/m 12,9 km/h (3 Bft) 97,87 %
17.04.2021 17:54 12,9 C 13,9 C 10,0 C 53 % 1023,2 hPa 0,0 l/m 2 min 0 min 219 W/m 9,7 km/h (2 Bft) 97,87 %
17.04.2021 17:56 12,9 C 15,0 C 10,6 C 54 % 1023,2 hPa 0,0 l/m 2 min 0 min 244 W/m 6,4 km/h (2 Bft) 100,00 %
17.04.2021 17:58 13,0 C 16,1 C 10,6 C 54 % 1023,1 hPa 0,0 l/m 2 min 0 min 419 W/m 19,3 km/h (3 Bft) 100,00 %
17.04.2021 18:00 13,0 C 16,7 C 11,1 C 53 % 1023,1 hPa 0,0 l/m 2 min 0 min 267 W/m 19,3 km/h (3 Bft) 100,00 %
17.04.2021 18:02 13,0 C 16,1 C 11,1 C 53 % 1023,1 hPa 0,0 l/m 2 min 0 min 398 W/m 19,3 km/h (3 Bft) 96,23 %
17.04.2021 18:04 13,1 C 15,6 C 10,6 C 53 % 1023,1 hPa 0,0 l/m 2 min 0 min 273 W/m 9,7 km/h (2 Bft) 100,00 %
17.04.2021 18:08 13,0 C 13,9 C 10,6 C 53 % 1023,1 hPa 0,0 l/m 0 min 0 min 167 W/m 12,9 km/h (3 Bft) 98,92 %
17.04.2021 18:10 12,9 C 13,3 C 10,0 C 53 % 1023,0 hPa 0,0 l/m 0 min 0 min 153 W/m 9,7 km/h (2 Bft) 100,00 %
17.04.2021 18:12 12,9 C 13,3 C 10,0 C 54 % 1023,1 hPa 0,0 l/m 0 min 0 min 145 W/m 9,7 km/h (2 Bft) 100,00 %
17.04.2021 18:14 12,9 C 13,3 C 10,0 C 54 % 1023,1 hPa 0,0 l/m 0 min 0 min 142 W/m 12,9 km/h (3 Bft) 100,00 %
17.04.2021 18:16 12,8 C 12,8 C 10,0 C 54 % 1023,1 hPa 0,0 l/m 0 min 0 min 146 W/m 22,5 km/h (4 Bft) 100,00 %
17.04.2021 18:18 12,8 C 12,8 C 9,5 C 53 % 1023,1 hPa 0,0 l/m 0 min 0 min 148 W/m 16,1 km/h (3 Bft) 97,83 %
17.04.2021 18:20 12,7 C 12,8 C 9,5 C 54 % 1023,1 hPa 0,0 l/m 0 min 0 min 145 W/m 19,3 km/h (3 Bft) 100,00 %
17.04.2021 18:22 12,6 C 12,8 C 9,5 C 55 % 1023,1 hPa 0,0 l/m 0 min 0 min 139 W/m 16,1 km/h (3 Bft) 100,00 %
17.04.2021 18:24 12,6 C 12,8 C 9,5 C 55 % 1023,0 hPa 0,0 l/m 0 min 0 min 136 W/m 12,9 km/h (3 Bft) 100,00 %
17.04.2021 18:26 12,5 C 12,8 C 9,5 C 54 % 1023,0 hPa 0,0 l/m 0 min 0 min 130 W/m 12,9 km/h (3 Bft) 97,87 %
17.04.2021 18:28 12,5 C 12,8 C 9,5 C 54 % 1023,0 hPa 0,0 l/m 0 min 0 min 135 W/m 16,1 km/h (3 Bft) 100,00 %
17.04.2021 18:30 12,4 C 13,3 C 9,5 C 55 % 1023,0 hPa 0,0 l/m 0 min 0 min 116 W/m 16,1 km/h (3 Bft) 97,83 %
17.04.2021 18:32 12,4 C 13,3 C 9,5 C 55 % 1023,0 hPa 0,0 l/m 2 min 0 min 152 W/m 12,9 km/h (3 Bft) 100,00 %
17.04.2021 18:34 12,4 C 13,3 C 9,5 C 55 % 1023,0 hPa 0,0 l/m 0 min 0 min 128 W/m 19,3 km/h (3 Bft) 100,00 %
17.04.2021 18:36 12,4 C 13,3 C 9,5 C 56 % 1023,0 hPa 0,0 l/m 0 min 0 min 86 W/m 16,1 km/h (3 Bft) 97,87 %
17.04.2021 18:38 12,3 C 12,8 C 8,9 C 55 % 1023,0 hPa 0,0 l/m 0 min 0 min 83 W/m 6,4 km/h (2 Bft) 100,00 %
17.04.2021 18:40 12,3 C 12,2 C 8,9 C 56 % 1023,0 hPa 0,0 l/m 0 min 0 min 82 W/m 6,4 km/h (2 Bft) 97,87 %
17.04.2021 18:42 12,2 C 12,2 C 8,9 C 56 % 1023,0 hPa 0,0 l/m 0 min 0 min 84 W/m 19,3 km/h (3 Bft) 95,65 %
17.04.2021 18:44 12,1 C 12,2 C 8,9 C 56 % 1023,0 hPa 0,0 l/m 0 min 0 min 89 W/m 16,1 km/h (3 Bft) 93,62 %
17.04.2021 18:46 12,0 C 12,2 C 8,9 C 57 % 1022,9 hPa 0,0 l/m 0 min 0 min 104 W/m 12,9 km/h (3 Bft) 97,87 %
17.04.2021 18:48 12,0 C 11,7 C 8,9 C 57 % 1023,0 hPa 0,0 l/m 0 min 0 min 101 W/m 19,3 km/h (3 Bft) 97,87 %
17.04.2021 18:50 12,0 C 12,2 C 8,9 C 57 % 1022,9 hPa 0,0 l/m 0 min 0 min 118 W/m 12,9 km/h (3 Bft) 97,87 %
17.04.2021 18:52 12,0 C 12,2 C 8,9 C 57 % 1022,9 hPa 0,0 l/m 2 min 0 min 130 W/m 9,7 km/h (2 Bft) 97,83 %
17.04.2021 18:54 12,0 C 12,2 C 9,5 C 56 % 1023,0 hPa 0,0 l/m 2 min 0 min 130 W/m 12,9 km/h (3 Bft) 97,87 %
17.04.2021 18:56 12,0 C 12,8 C 9,5 C 57 % 1022,9 hPa 0,0 l/m 2 min 0 min 123 W/m 12,9 km/h (3 Bft) 97,87 %
17.04.2021 18:58 12,0 C 12,8 C 9,5 C 57 % 1023,0 hPa 0,0 l/m 0 min 0 min 111 W/m 22,5 km/h (4 Bft) 97,87 %
17.04.2021 19:00 12,0 C 12,2 C 9,5 C 57 % 1023,0 hPa 0,0 l/m 0 min 0 min 111 W/m 12,9 km/h (3 Bft) 97,87 %
17.04.2021 19:02 12,1 C 12,2 C 9,5 C 56 % 1023,0 hPa 0,0 l/m 0 min 0 min 101 W/m 9,7 km/h (2 Bft) 97,87 %
17.04.2021 19:04 12,1 C 12,2 C 9,5 C 57 % 1022,9 hPa 0,0 l/m 0 min 0 min 88 W/m 6,4 km/h (2 Bft) 97,83 %
17.04.2021 19:06 12,1 C 12,2 C 8,9 C 57 % 1023,0 hPa 0,0 l/m 0 min 0 min 76 W/m 9,7 km/h (2 Bft) 97,87 %
17.04.2021 19:08 12,0 C 12,2 C 8,9 C 57 % 1023,0 hPa 0,0 l/m 0 min 0 min 70 W/m 12,9 km/h (3 Bft) 97,87 %
17.04.2021 19:10 12,0 C 11,7 C 8,9 C 57 % 1023,0 hPa 0,0 l/m 0 min 0 min 64 W/m 12,9 km/h (3 Bft) 97,87 %
17.04.2021 19:12 12,0 C 11,7 C 8,9 C 58 % 1023,0 hPa 0,0 l/m 0 min 0 min 59 W/m 6,4 km/h (2 Bft) 93,62 %
17.04.2021 19:14 12,0 C 11,7 C 8,9 C 57 % 1023,0 hPa 0,0 l/m 0 min 0 min 57 W/m 12,9 km/h (3 Bft) 97,87 %
17.04.2021 19:16 11,9 C 11,7 C 8,9 C 57 % 1023,0 hPa 0,0 l/m 0 min 0 min 55 W/m 6,4 km/h (2 Bft) 97,14 %
17.04.2021 19:18 11,9 C 11,7 C 8,9 C 58 % 1023,0 hPa 0,0 l/m 0 min 0 min 52 W/m 9,7 km/h (2 Bft) 97,92 %
17.04.2021 19:20 11,9 C 11,7 C 8,4 C 58 % 1023,0 hPa 0,0 l/m 0 min 0 min 49 W/m 3,2 km/h (1 Bft) 97,83 %
17.04.2021 19:22 11,8 C 11,7 C 8,4 C 58 % 1023,0 hPa 0,0 l/m 0 min 0 min 51 W/m 6,4 km/h (2 Bft) 100,00 %
17.04.2021 19:24 11,8 C 11,1 C 8,4 C 58 % 1023,1 hPa 0,0 l/m 0 min 0 min 52 W/m 16,1 km/h (3 Bft) 100,00 %
17.04.2021 19:26 11,8 C 11,1 C 8,4 C 58 % 1023,0 hPa 0,0 l/m 0 min 0 min 51 W/m 6,4 km/h (2 Bft) 100,00 %
17.04.2021 19:28 11,7 C 11,1 C 8,4 C 58 % 1023,1 hPa 0,0 l/m 0 min 0 min 47 W/m 6,4 km/h (2 Bft) 100,00 %
17.04.2021 19:30 11,7 C 11,1 C 8,4 C 58 % 1023,1 hPa 0,0 l/m 0 min 0 min 43 W/m 19,3 km/h (3 Bft) 97,87 %
17.04.2021 19:32 11,6 C 11,1 C 8,4 C 58 % 1023,1 hPa 0,0 l/m 0 min 0 min 39 W/m 16,1 km/h (3 Bft) 97,83 %
17.04.2021 19:34 11,6 C 11,1 C 8,4 C 58 % 1023,0 hPa 0,0 l/m 0 min 0 min 37 W/m 16,1 km/h (3 Bft) 100,00 %
17.04.2021 19:36 11,5 C 11,1 C 8,4 C 57 % 1023,0 hPa 0,0 l/m 0 min 0 min 34 W/m 9,7 km/h (2 Bft) 100,00 %
17.04.2021 19:38 11,5 C 11,1 C 8,4 C 58 % 1023,0 hPa 0,0 l/m 0 min 0 min 33 W/m 12,9 km/h (3 Bft) 100,00 %
17.04.2021 19:40 11,5 C 10,6 C 8,4 C 58 % 1023,1 hPa 0,0 l/m 0 min 0 min 33 W/m 16,1 km/h (3 Bft) 100,00 %
17.04.2021 19:42 11,5 C 10,6 C 8,4 C 58 % 1023,1 hPa 0,0 l/m 0 min 0 min 33 W/m 6,4 km/h (2 Bft) 100,00 %
17.04.2021 19:44 11,4 C 10,6 C 8,4 C 58 % 1023,1 hPa 0,0 l/m 0 min 0 min 31 W/m 9,7 km/h (2 Bft) 100,00 %
17.04.2021 19:46 11,4 C 10,6 C 8,4 C 58 % 1023,1 hPa 0,0 l/m 0 min 0 min 28 W/m 9,7 km/h (2 Bft) 100,00 %
17.04.2021 19:48 11,4 C 10,6 C 8,4 C 58 % 1023,1 hPa 0,0 l/m 0 min 0 min 28 W/m 16,1 km/h (3 Bft) 100,00 %
17.04.2021 19:50 11,4 C 10,6 C 8,4 C 58 % 1023,1 hPa 0,0 l/m 0 min 0 min 28 W/m 12,9 km/h (3 Bft) 100,00 %
17.04.2021 19:52 11,3 C 10,6 C 7,8 C 58 % 1023,1 hPa 0,0 l/m 0 min 0 min 26 W/m 9,7 km/h (2 Bft) 100,00 %
17.04.2021 19:54 11,3 C 10,6 C 7,8 C 59 % 1023,1 hPa 0,0 l/m 0 min 0 min 24 W/m 6,4 km/h (2 Bft) 97,83 %
17.04.2021 19:56 11,3 C 10,6 C 7,8 C 58 % 1023,1 hPa 0,0 l/m 0 min 0 min 23 W/m 19,3 km/h (3 Bft) 97,87 %
17.04.2021 19:58 11,3 C 10,6 C 7,8 C 59 % 1023,1 hPa 0,0 l/m 0 min 0 min 21 W/m 3,2 km/h (1 Bft) 95,74 %
17.04.2021 20:00 11,2 C 10,6 C 7,8 C 59 % 1023,1 hPa 0,0 l/m 0 min 0 min 20 W/m 6,4 km/h (2 Bft) 97,87 %
17.04.2021 20:02 11,2 C 10,6 C 7,8 C 59 % 1023,1 hPa 0,0 l/m 0 min 0 min 19 W/m 9,7 km/h (2 Bft) 97,87 %
17.04.2021 20:04 11,2 C 10,6 C 7,8 C 59 % 1023,1 hPa 0,0 l/m 0 min 0 min 19 W/m 12,9 km/h (3 Bft) 97,87 %
17.04.2021 20:06 11,1 C 10,6 C 7,8 C 59 % 1023,1 hPa 0,0 l/m 0 min 0 min 17 W/m 9,7 km/h (2 Bft) 80,43 %
17.04.2021 20:08 11,1 C 10,6 C 7,8 C 59 % 1023,1 hPa 0,0 l/m 0 min 0 min 15 W/m 16,1 km/h (3 Bft) 82,98 %
17.04.2021 20:10 11,1 C 10,6 C 7,8 C 59 % 1023,1 hPa 0,0 l/m 0 min 0 min 14 W/m 9,7 km/h (2 Bft) 80,85 %
17.04.2021 20:12 11,1 C 10,6 C 7,8 C 60 % 1023,1 hPa 0,0 l/m 0 min 0 min 12 W/m 9,7 km/h (2 Bft) 93,48 %
17.04.2021 20:14 11,1 C 10,6 C 7,8 C 60 % 1023,1 hPa 0,0 l/m 0 min 0 min 11 W/m 6,4 km/h (2 Bft) 91,49 %
17.04.2021 20:16 11,1 C 10,6 C 7,8 C 60 % 1023,1 hPa 0,0 l/m 0 min 0 min 9 W/m 3,2 km/h (1 Bft) 95,74 %
17.04.2021 20:18 11,0 C 10,6 C 7,8 C 60 % 1023,1 hPa 0,0 l/m 0 min 0 min 9 W/m 9,7 km/h (2 Bft) 89,13 %
17.04.2021 20:20 11,0 C 10,0 C 7,8 C 60 % 1023,1 hPa 0,0 l/m 0 min 0 min 8 W/m 12,9 km/h (3 Bft) 95,74 %
17.04.2021 20:22 11,0 C 10,0 C 7,8 C 60 % 1023,2 hPa 0,0 l/m 0 min 0 min 7 W/m 9,7 km/h (2 Bft) 95,74 %
17.04.2021 20:24 11,0 C 10,0 C 7,8 C 60 % 1023,2 hPa 0,0 l/m 0 min 0 min 5 W/m 6,4 km/h (2 Bft) 91,49 %
17.04.2021 20:26 11,0 C 10,0 C 7,8 C 60 % 1023,1 hPa 0,0 l/m 0 min 0 min 5 W/m 3,2 km/h (1 Bft) 95,74 %
17.04.2021 20:28 11,0 C 10,0 C 7,8 C 61 % 1023,1 hPa 0,0 l/m 0 min 0 min 5 W/m 6,4 km/h (2 Bft) 93,62 %
17.04.2021 20:30 11,0 C 10,0 C 7,8 C 61 % 1023,1 hPa 0,0 l/m 0 min 0 min 0 W/m 12,9 km/h (3 Bft) 93,48 %
17.04.2021 20:32 11,0 C 10,0 C 7,8 C 61 % 1023,2 hPa 0,0 l/m 0 min 0 min 0 W/m 9,7 km/h (2 Bft) 93,62 %
17.04.2021 20:34 10,9 C 10,0 C 7,3 C 61 % 1023,1 hPa 0,0 l/m 0 min 0 min 0 W/m 3,2 km/h (1 Bft) 95,74 %
17.04.2021 20:36 10,9 C 10,0 C 7,3 C 61 % 1023,1 hPa 0,0 l/m 0 min 0 min 0 W/m 3,2 km/h (1 Bft) 95,74 %
17.04.2021 20:38 10,9 C 10,0 C 7,3 C 61 % 1023,1 hPa 0,0 l/m 0 min 0 min 0 W/m 3,2 km/h (1 Bft) 95,74 %
17.04.2021 20:40 10,9 C 10,0 C 7,3 C 62 % 1023,1 hPa 0,0 l/m 0 min 0 min 0 W/m 6,4 km/h (2 Bft) 93,62 %
17.04.2021 20:42 10,9 C 10,0 C 7,3 C 62 % 1023,1 hPa 0,0 l/m 0 min 0 min 0 W/m 3,2 km/h (1 Bft) 95,65 %
17.04.2021 20:44 10,8 C 10,0 C 7,3 C 62 % 1023,1 hPa 0,0 l/m 0 min 0 min 0 W/m 3,2 km/h (1 Bft) 91,49 %
17.04.2021 20:46 10,8 C 10,0 C 7,3 C 62 % 1023,1 hPa 0,0 l/m 0 min 0 min 0 W/m 3,2 km/h (1 Bft) 97,87 %
17.04.2021 20:48 10,8 C 10,0 C 7,3 C 62 % 1023,1 hPa 0,0 l/m 0 min 0 min 0 W/m 6,4 km/h (2 Bft) 97,87 %
17.04.2021 20:50 10,8 C 10,0 C 7,3 C 63 % 1023,0 hPa 0,0 l/m 0 min 0 min 0 W/m 3,2 km/h (1 Bft) 97,87 %
17.04.2021 20:52 10,7 C 9,4 C 7,3 C 63 % 1023,0 hPa 0,0 l/m 0 min 0 min 0 W/m 6,4 km/h (2 Bft) 97,87 %
17.04.2021 20:54 10,7 C 10,0 C 7,3 C 63 % 1023,1 hPa 0,0 l/m 0 min 0 min 0 W/m 3,2 km/h (1 Bft) 95,65 %
17.04.2021 20:56 10,7 C 10,0 C 7,3 C 63 % 1023,1 hPa 0,0 l/m 0 min 0 min 0 W/m 3,2 km/h (1 Bft) 97,87 %
17.04.2021 20:58 10,6 C 10,0 C 7,3 C 63 % 1023,1 hPa 0,0 l/m 0 min 0 min 0 W/m 3,2 km/h (1 Bft) 97,87 %
17.04.2021 21:00 10,6 C 9,4 C 7,3 C 63 % 1023,1 hPa 0,0 l/m 0 min 0 min 0 W/m 3,2 km/h (1 Bft) 97,87 %
17.04.2021 21:02 10,6 C 9,4 C 7,3 C 64 % 1023,1 hPa 0,0 l/m 0 min 0 min 0 W/m 6,4 km/h (2 Bft) 89,36 %
17.04.2021 21:04 10,6 C 9,4 C 7,3 C 64 % 1023,1 hPa 0,0 l/m 0 min 0 min 0 W/m 9,7 km/h (2 Bft) 95,74 %
17.04.2021 21:06 10,5 C 9,4 C 7,3 C 64 % 1023,1 hPa 0,0 l/m 0 min 0 min 0 W/m 9,7 km/h (2 Bft) 95,65 %
17.04.2021 21:08 10,5 C 9,4 C 7,3 C 64 % 1023,1 hPa 0,0 l/m 0 min 0 min 0 W/m 9,7 km/h (2 Bft) 95,74 %
17.04.2021 21:10 10,5 C 9,4 C 7,3 C 63 % 1023,1 hPa 0,0 l/m 0 min 0 min 0 W/m 16,1 km/h (3 Bft) 95,74 %
17.04.2021 21:12 10,5 C 10,0 C 7,3 C 63 % 1023,1 hPa 0,0 l/m 0 min 0 min 0 W/m 12,9 km/h (3 Bft) 95,74 %
17.04.2021 21:14 10,5 C 10,0 C 7,3 C 62 % 1023,1 hPa 0,0 l/m 0 min 0 min 0 W/m 19,3 km/h (3 Bft) 94,34 %
17.04.2021 21:16 10,5 C 10,0 C 7,3 C 62 % 1023,1 hPa 0,0 l/m 0 min 0 min 0 W/m 12,9 km/h (3 Bft) 95,65 %
17.04.2021 21:18 10,5 C 10,0 C 7,3 C 62 % 1023,1 hPa 0,0 l/m 0 min 0 min 0 W/m 19,3 km/h (3 Bft) 95,74 %
17.04.2021 21:20 10,5 C 10,0 C 7,3 C 62 % 1023,2 hPa 0,0 l/m 0 min 0 min 0 W/m 16,1 km/h (3 Bft) 93,62 %
17.04.2021 21:22 10,5 C 10,0 C 7,3 C 62 % 1023,1 hPa 0,0 l/m 0 min 0 min 0 W/m 6,4 km/h (2 Bft) 95,74 %
17.04.2021 21:24 10,5 C 10,0 C 7,3 C 62 % 1023,2 hPa 0,0 l/m 0 min 0 min 0 W/m 12,9 km/h (3 Bft) 95,74 %
17.04.2021 21:26 10,5 C 10,0 C 7,3 C 62 % 1023,1 hPa 0,0 l/m 0 min 0 min 0 W/m 6,4 km/h (2 Bft) 95,74 %
17.04.2021 21:28 10,5 C 10,0 C 7,3 C 63 % 1023,1 hPa 0,0 l/m 0 min 0 min 0 W/m 19,3 km/h (3 Bft) 93,62 %
17.04.2021 21:30 10,5 C 10,0 C 7,3 C 62 % 1023,1 hPa 0,0 l/m 0 min 0 min 0 W/m 19,3 km/h (3 Bft) 97,83 %
17.04.2021 21:32 10,5 C 9,4 C 7,3 C 63 % 1023,1 hPa 0,0 l/m 0 min 0 min 0 W/m 12,9 km/h (3 Bft) 97,87 %
17.04.2021 21:34 10,5 C 9,4 C 7,3 C 63 % 1023,1 hPa 0,0 l/m 0 min 0 min 0 W/m 19,3 km/h (3 Bft) 97,87 %
17.04.2021 21:36 10,5 C 9,4 C 7,3 C 62 % 1023,1 hPa 0,0 l/m 0 min 0 min 0 W/m 16,1 km/h (3 Bft) 95,74 %
17.04.2021 21:38 10,4 C 9,4 C 7,3 C 63 % 1023,2 hPa 0,0 l/m 0 min 0 min 0 W/m 19,3 km/h (3 Bft) 97,87 %
17.04.2021 21:40 10,4 C 9,4 C 7,3 C 62 % 1023,2 hPa 0,0 l/m 0 min 0 min 0 W/m 16,1 km/h (3 Bft) 100,00 %
17.04.2021 21:42 10,4 C 9,4 C 7,3 C 62 % 1023,2 hPa 0,0 l/m 0 min 0 min 0 W/m 16,1 km/h (3 Bft) 100,00 %
17.04.2021 21:44 10,4 C 9,4 C 7,3 C 62 % 1023,2 hPa 0,0 l/m 0 min 0 min 0 W/m 16,1 km/h (3 Bft) 100,00 %
17.04.2021 21:46 10,4 C 9,4 C 7,3 C 62 % 1023,2 hPa 0,0 l/m 0 min 0 min 0 W/m 9,7 km/h (2 Bft) 97,56 %
17.04.2021 21:48 10,4 C 9,4 C 6,7 C 62 % 1023,2 hPa 0,0 l/m 0 min 0 min 0 W/m 12,9 km/h (3 Bft) 100,00 %
17.04.2021 21:50 10,4 C 9,4 C 6,7 C 62 % 1023,2 hPa 0,0 l/m 0 min 0 min 0 W/m 9,7 km/h (2 Bft) 97,87 %
17.04.2021 21:52 10,4 C 9,4 C 6,7 C 62 % 1023,1 hPa 0,0 l/m 0 min 0 min 0 W/m 12,9 km/h (3 Bft) 100,00 %
17.04.2021 21:54 10,3 C 9,4 C 6,7 C 62 % 1023,1 hPa 0,0 l/m 0 min 0 min 0 W/m 16,1 km/h (3 Bft) 100,00 %
17.04.2021 21:56 10,3 C 9,4 C 6,7 C 62 % 1023,1 hPa 0,0 l/m 0 min 0 min 0 W/m 9,7 km/h (2 Bft) 100,00 %
17.04.2021 21:58 10,3 C 9,4 C 6,7 C 62 % 1023,1 hPa 0,0 l/m 0 min 0 min 0 W/m 12,9 km/h (3 Bft) 97,87 %
17.04.2021 22:00 10,3 C 9,4 C 6,7 C 62 % 1023,1 hPa 0,0 l/m 0 min 0 min 0 W/m 9,7 km/h (2 Bft) 100,00 %
17.04.2021 22:02 10,2 C 9,4 C 6,7 C 62 % 1023,1 hPa 0,0 l/m 0 min 0 min 0 W/m 6,4 km/h (2 Bft) 100,00 %
17.04.2021 22:04 10,1 C 8,9 C 6,7 C 62 % 1023,2 hPa 0,0 l/m 0 min 0 min 0 W/m 6,4 km/h (2 Bft) 100,00 %
17.04.2021 22:06 10,1 C 8,9 C 6,7 C 62 % 1023,1 hPa 0,0 l/m 0 min 0 min 0 W/m 16,1 km/h (3 Bft) 100,00 %
17.04.2021 22:08 10,1 C 8,9 C 6,1 C 62 % 1023,2 hPa 0,0 l/m 0 min 0 min 0 W/m 16,1 km/h (3 Bft) 100,00 %
17.04.2021 22:10 10,0 C 8,9 C 6,1 C 62 % 1023,1 hPa 0,0 l/m 0 min 0 min 0 W/m 12,9 km/h (3 Bft) 100,00 %
17.04.2021 22:12 10,0 C 8,9 C 6,1 C 62 % 1023,2 hPa 0,0 l/m 0 min 0 min 0 W/m 9,7 km/h (2 Bft) 100,00 %
17.04.2021 22:14 10,0 C 8,9 C 6,1 C 62 % 1023,1 hPa 0,0 l/m 0 min 0 min 0 W/m 9,7 km/h (2 Bft) 100,00 %
17.04.2021 22:16 10,0 C 8,9 C 6,1 C 63 % 1023,2 hPa 0,0 l/m 0 min 0 min 0 W/m 9,7 km/h (2 Bft) 100,00 %
17.04.2021 22:18 9,9 C 8,9 C 6,1 C 63 % 1023,2 hPa 0,0 l/m 0 min 0 min 0 W/m 9,7 km/h (2 Bft) 100,00 %
17.04.2021 22:20 9,9 C 8,3 C 6,1 C 63 % 1023,1 hPa 0,0 l/m 0 min 0 min 0 W/m 12,9 km/h (3 Bft) 100,00 %
17.04.2021 22:22 9,8 C 8,9 C 6,1 C 63 % 1023,1 hPa 0,0 l/m 0 min 0 min 0 W/m 19,3 km/h (3 Bft) 100,00 %
17.04.2021 22:24 9,8 C 8,9 C 6,1 C 64 % 1023,1 hPa 0,0 l/m 0 min 0 min 0 W/m 12,9 km/h (3 Bft) 100,00 %
17.04.2021 22:26 9,7 C 8,9 C 6,1 C 64 % 1023,2 hPa 0,0 l/m 0 min 0 min 0 W/m 12,9 km/h (3 Bft) 97,87 %
17.04.2021 22:28 9,7 C 8,9 C 6,1 C 64 % 1023,2 hPa 0,0 l/m 0 min 0 min 0 W/m 6,4 km/h (2 Bft) 100,00 %
17.04.2021 22:30 9,7 C 8,9 C 6,1 C 64 % 1023,2 hPa 0,0 l/m 0 min 0 min 0 W/m 6,4 km/h (2 Bft) 100,00 %
17.04.2021 22:32 9,6 C 8,9 C 6,1 C 64 % 1023,2 hPa 0,0 l/m 0 min 0 min 0 W/m 16,1 km/h (3 Bft) 100,00 %
17.04.2021 22:34 9,6 C 8,9 C 6,1 C 64 % 1023,3 hPa 0,0 l/m 0 min 0 min 0 W/m 19,3 km/h (3 Bft) 100,00 %
17.04.2021 22:36 9,6 C 8,3 C 6,1 C 64 % 1023,2 hPa 0,0 l/m 0 min 0 min 0 W/m 6,4 km/h (2 Bft) 97,87 %
17.04.2021 22:38 9,6 C 8,3 C 6,1 C 64 % 1023,2 hPa 0,0 l/m 0 min 0 min 0 W/m 9,7 km/h (2 Bft) 100,00 %
17.04.2021 22:40 9,6 C 8,3 C 6,1 C 64 % 1023,2 hPa 0,0 l/m 0 min 0 min 0 W/m 12,9 km/h (3 Bft) 100,00 %
17.04.2021 22:42 9,5 C 8,3 C 6,1 C 65 % 1023,2 hPa 0,0 l/m 0 min 0 min 0 W/m 9,7 km/h (2 Bft) 100,00 %
17.04.2021 22:44 9,5 C 8,3 C 6,1 C 65 % 1023,2 hPa 0,0 l/m 0 min 0 min 0 W/m 12,9 km/h (3 Bft) 100,00 %
17.04.2021 22:46 9,5 C 8,3 C 6,1 C 65 % 1023,2 hPa 0,0 l/m 0 min 0 min 0 W/m 9,7 km/h (2 Bft) 100,00 %
17.04.2021 22:48 9,5 C 8,3 C 6,1 C 65 % 1023,2 hPa 0,0 l/m 0 min 0 min 0 W/m 16,1 km/h (3 Bft) 100,00 %
17.04.2021 22:50 9,4 C 8,3 C 6,1 C 65 % 1023,2 hPa 0,0 l/m 0 min 0 min 0 W/m 16,1 km/h (3 Bft) 100,00 %
17.04.2021 22:52 9,4 C 8,9 C 6,1 C 65 % 1023,2 hPa 0,0 l/m 0 min 0 min 0 W/m 12,9 km/h (3 Bft) 100,00 %
17.04.2021 22:54 9,4 C 8,9 C 6,1 C 65 % 1023,3 hPa 0,0 l/m 0 min 0 min 0 W/m 12,9 km/h (3 Bft) 97,87 %
17.04.2021 22:56 9,4 C 8,3 C 6,1 C 65 % 1023,3 hPa 0,0 l/m 0 min 0 min 0 W/m 12,9 km/h (3 Bft) 97,87 %
17.04.2021 22:58 9,4 C 8,3 C 6,1 C 65 % 1023,3 hPa 0,0 l/m 0 min 0 min 0 W/m 16,1 km/h (3 Bft) 100,00 %
17.04.2021 23:00 9,4 C 8,3 C 6,1 C 65 % 1023,3 hPa 0,0 l/m 0 min 0 min 0 W/m 6,4 km/h (2 Bft) 95,74 %
17.04.2021 23:02 9,4 C 8,3 C 6,1 C 65 % 1023,3 hPa 0,0 l/m 0 min 0 min 0 W/m 12,9 km/h (3 Bft) 97,87 %
17.04.2021 23:04 9,3 C 8,3 C 6,1 C 65 % 1023,3 hPa 0,0 l/m 0 min 0 min 0 W/m 12,9 km/h (3 Bft) 95,65 %
17.04.2021 23:06 9,3 C 8,3 C 6,1 C 65 % 1023,3 hPa 0,0 l/m 0 min 0 min 0 W/m 9,7 km/h (2 Bft) 97,87 %
17.04.2021 23:08 9,3 C 8,3 C 6,1 C 65 % 1023,3 hPa 0,0 l/m 0 min 0 min 0 W/m 9,7 km/h (2 Bft) 97,87 %
17.04.2021 23:10 9,3 C 8,3 C 5,6 C 65 % 1023,2 hPa 0,0 l/m 0 min 0 min 0 W/m 12,9 km/h (3 Bft) 97,87 %
17.04.2021 23:12 9,2 C 8,3 C 5,6 C 65 % 1023,2 hPa 0,0 l/m 0 min 0 min 0 W/m 16,1 km/h (3 Bft) 95,74 %
17.04.2021 23:14 9,1 C 8,3 C 5,6 C 65 % 1023,2 hPa 0,0 l/m 0 min 0 min 0 W/m 19,3 km/h (3 Bft) 97,87 %
17.04.2021 23:16 9,1 C 8,3 C 5,6 C 65 % 1023,2 hPa 0,0 l/m 0 min 0 min 0 W/m 16,1 km/h (3 Bft) 96,15 %
17.04.2021 23:18 9,0 C 7,8 C 5,6 C 66 % 1023,1 hPa 0,0 l/m 0 min 0 min 0 W/m 16,1 km/h (3 Bft) 97,87 %
17.04.2021 23:20 9,0 C 7,8 C 5,6 C 65 % 1023,2 hPa 0,0 l/m 0 min 0 min 0 W/m 12,9 km/h (3 Bft) 95,74 %
17.04.2021 23:22 9,0 C 7,8 C 5,6 C 66 % 1023,2 hPa 0,0 l/m 0 min 0 min 0 W/m 12,9 km/h (3 Bft) 97,37 %
17.04.2021 23:24 8,9 C 7,8 C 5,0 C 66 % 1023,2 hPa 0,0 l/m 0 min 0 min 0 W/m 12,9 km/h (3 Bft) 97,87 %
17.04.2021 23:26 8,9 C 7,8 C 5,0 C 66 % 1023,2 hPa 0,0 l/m 0 min 0 min 0 W/m 6,4 km/h (2 Bft) 97,87 %
17.04.2021 23:28 8,9 C 7,8 C 5,0 C 66 % 1023,2 hPa 0,0 l/m 0 min 0 min 0 W/m 6,4 km/h (2 Bft) 97,83 %
17.04.2021 23:30 8,8 C 7,2 C 5,0 C 66 % 1023,2 hPa 0,0 l/m 0 min 0 min 0 W/m 9,7 km/h (2 Bft) 95,74 %
17.04.2021 23:32 8,8 C 7,2 C 5,0 C 67 % 1023,2 hPa 0,0 l/m 0 min 0 min 0 W/m 12,9 km/h (3 Bft) 93,62 %
17.04.2021 23:34 8,6 C 7,2 C 5,0 C 66 % 1023,2 hPa 0,0 l/m 0 min 0 min 0 W/m 12,9 km/h (3 Bft) 95,74 %
17.04.2021 23:36 8,6 C 7,2 C 5,0 C 67 % 1023,2 hPa 0,0 l/m 0 min 0 min 0 W/m 16,1 km/h (3 Bft) 93,62 %
17.04.2021 23:38 8,5 C 7,2 C 5,0 C 67 % 1023,2 hPa 0,0 l/m 0 min 0 min 0 W/m 12,9 km/h (3 Bft) 95,74 %
17.04.2021 23:40 8,5 C 7,2 C 4,5 C 67 % 1023,2 hPa 0,0 l/m 0 min 0 min 0 W/m 12,9 km/h (3 Bft) 95,65 %
17.04.2021 23:42 8,4 C 7,2 C 5,0 C 67 % 1023,3 hPa 0,0 l/m 0 min 0 min 0 W/m 16,1 km/h (3 Bft) 93,62 %
17.04.2021 23:44 8,4 C 7,2 C 4,5 C 67 % 1023,3 hPa 0,0 l/m 0 min 0 min 0 W/m 19,3 km/h (3 Bft) 95,74 %
17.04.2021 23:46 8,3 C 7,2 C 4,5 C 67 % 1023,3 hPa 0,0 l/m 0 min 0 min 0 W/m 12,9 km/h (3 Bft) 95,74 %
17.04.2021 23:48 8,3 C 7,2 C 4,5 C 67 % 1023,2 hPa 0,0 l/m 0 min 0 min 0 W/m 12,9 km/h (3 Bft) 92,00 %
17.04.2021 23:50 8,2 C 7,2 C 4,5 C 67 % 1023,2 hPa 0,0 l/m 0 min 0 min 0 W/m 16,1 km/h (3 Bft) 97,87 %
17.04.2021 23:52 8,1 C 7,2 C 4,5 C 67 % 1023,2 hPa 0,0 l/m 0 min 0 min 0 W/m 9,7 km/h (2 Bft) 95,65 %
17.04.2021 23:54 8,1 C 7,2 C 4,5 C 68 % 1023,2 hPa 0,0 l/m 0 min 0 min 0 W/m 12,9 km/h (3 Bft) 93,62 %
17.04.2021 23:56 8,1 C 7,2 C 4,5 C 68 % 1023,3 hPa 0,0 l/m 0 min 0 min 0 W/m 6,4 km/h (2 Bft) 95,74 %
17.04.2021 23:58 8,0 C 7,2 C 4,5 C 68 % 1023,3 hPa 0,0 l/m 0 min 0 min 0 W/m 9,7 km/h (2 Bft) 53,33 %
_ Min-Zeit 07:02 06:24 05:30 15:52 18:46 - - - - 03:58 04:04
Minimum _ 2,8 C 1,7 C 0,0 C 52 % 1022,9 hPa - - - - 0,0 km/h (0 Bft) 29,79 %
_ Max-Zeit 14:04 14:02 12:14 07:04 07:56 00:00 12:08 00:00 14:02 12:28 01:04
Maximum _ 13,9 C 18,9 C 19,5 C 85 % 1026,7 hPa 0,0 l/m 4 min 0 min 1018 W/m 38,6 km/h
NO (5 Bft)
100,00 %
Durchschnitt _ 9,0 C 9,6 C 6,8 C 67 % 1025,1 hPa #0,0 l/m #6:50 h #0 min. 324 W/m 11,0 km/h (2 Bft) 93,08 %
© 2021 W. Hausmann